CPA875 KDFW-VHHH

Flight info

Callsign CPA875
Flight time N/A
Altitude 34000
Route HUDAD2 HUDAD DCT PNH DCT HBU DCT KU60Q DCT KS84G DCT SEDAR DCT 46N130W 49N140W 52N150W 53N160W 52N170W 50N180E 44N170E/N0494F360 36N160E 30N150E/N0491F380 25N140E DCT TUNTO/N0489F400 DCT GUMBO J5 HCN G581 ELATO V522 ABBEY
Aircraft A35K/H-SDE2E3GHIJ3J4J5LM1ORWXY/LB1D1

Departure

Time 2026-05-05 18:34
Airport Dallas Fort Worth International Airport (KDFW)

Arrival

Time N/A
Airport Hong Kong International Airport (VHHH)
Time Latitude Longitude Altitude Speed Heading
2026-05-05 18:07 32.89769 -97.04573 598 ft 0 kts 91°
2026-05-05 18:18 32.89770 -97.04574 604 ft 2 kts 91°
2026-05-05 18:19 32.89770 -97.04604 604 ft 4 kts 91°
2026-05-05 18:19 32.89771 -97.04635 604 ft 2 kts 91°
2026-05-05 18:19 32.89769 -97.04658 603 ft 4 kts 45°
2026-05-05 18:19 32.89749 -97.04666 603 ft 4 kts
2026-05-05 18:20 32.89722 -97.04666 603 ft 4 kts
2026-05-05 18:20 32.89715 -97.04667 603 ft 0 kts
2026-05-05 18:23 32.89728 -97.04666 603 ft 6 kts
2026-05-05 18:23 32.89837 -97.04666 603 ft 26 kts
2026-05-05 18:24 32.90034 -97.04665 604 ft 7 kts
2026-05-05 18:24 32.90037 -97.04665 604 ft 0 kts
2026-05-05 18:24 32.90057 -97.04665 604 ft 6 kts
2026-05-05 18:24 32.90108 -97.04669 603 ft 7 kts 334°
2026-05-05 18:25 32.90131 -97.04722 602 ft 7 kts 276°
2026-05-05 18:25 32.90123 -97.04754 603 ft 6 kts 248°
2026-05-05 18:25 32.90118 -97.04798 604 ft 3 kts 265°
2026-05-05 18:25 32.90117 -97.04810 617 ft 0 kts 266°
2026-05-05 18:26 32.90117 -97.04826 611 ft 10 kts 269°
2026-05-05 18:26 32.90237 -97.04888 613 ft 34 kts
2026-05-05 18:27 32.90475 -97.04883 613 ft 34 kts 359°
2026-05-05 18:27 32.90700 -97.04882 617 ft 32 kts
2026-05-05 18:27 32.90850 -97.04882 619 ft 0 kts
2026-05-05 18:27 32.90868 -97.04881 620 ft 8 kts
2026-05-05 18:28 32.90986 -97.04865 625 ft 6 kts 45°
2026-05-05 18:28 32.91011 -97.04786 623 ft 16 kts 92°
2026-05-05 18:28 32.91011 -97.04604 622 ft 28 kts 90°
2026-05-05 18:29 32.91010 -97.04337 624 ft 34 kts 90°
2026-05-05 18:29 32.91009 -97.04030 624 ft 41 kts 90°
2026-05-05 18:29 32.91008 -97.03657 596 ft 52 kts 90°
2026-05-05 18:29 32.91007 -97.03387 588 ft 6 kts 90°
2026-05-05 18:30 32.91007 -97.03314 587 ft 13 kts 90°
2026-05-05 18:30 32.91024 -97.03205 584 ft 14 kts 51°
2026-05-05 18:30 32.91112 -97.03186 584 ft 13 kts 360°
2026-05-05 18:30 32.91215 -97.03186 586 ft 16 kts
2026-05-05 18:31 32.91337 -97.03185 585 ft 19 kts 360°
2026-05-05 18:31 32.91477 -97.03186 583 ft 21 kts 359°
2026-05-05 18:31 32.91550 -97.03136 584 ft 0 kts 70°
2026-05-05 18:32 32.91554 -97.03117 583 ft 11 kts 79°
2026-05-05 18:32 32.91554 -97.03011 587 ft 12 kts 111°
2026-05-05 18:33 32.91505 -97.02990 585 ft 6 kts 178°
2026-05-05 18:33 32.91412 -97.02989 584 ft 36 kts 180°
2026-05-05 18:33 32.90934 -97.02992 584 ft 103 kts 180°
2026-05-05 18:33 32.90003 -97.02999 586 ft 162 kts 181°
2026-05-05 18:34 32.88728 -97.03007 806 ft 186 kts 188°
2026-05-05 18:34 32.87869 -97.03029 1428 ft 185 kts 185°
2026-05-05 18:34 32.86064 -97.03194 1974 ft 203 kts 201°
2026-05-05 18:34 32.85181 -97.03626 2114 ft 211 kts 208°
2026-05-05 18:35 32.83850 -97.04422 2276 ft 224 kts 208°
2026-05-05 18:35 32.82427 -97.05279 2648 ft 233 kts 207°
2026-05-05 18:35 32.80956 -97.06126 3269 ft 237 kts 210°
2026-05-05 18:35 32.79462 -97.07002 3737 ft 244 kts 210°
2026-05-05 18:36 32.78052 -97.08151 4041 ft 246 kts 230°
2026-05-05 18:36 32.77235 -97.09912 4515 ft 246 kts 254°
2026-05-05 18:36 32.76857 -97.11905 5098 ft 250 kts 259°
2026-05-05 18:36 32.76594 -97.13924 5770 ft 248 kts 266°
2026-05-05 18:37 32.76624 -97.15973 6467 ft 250 kts 272°
2026-05-05 18:37 32.76740 -97.18049 7194 ft 253 kts 274°
2026-05-05 18:37 32.76871 -97.20149 7825 ft 256 kts 273°
2026-05-05 18:37 32.77018 -97.22264 8289 ft 258 kts 273°
2026-05-05 18:38 32.77343 -97.24367 8751 ft 262 kts 287°
2026-05-05 18:38 32.78100 -97.26345 9250 ft 265 kts 294°
2026-05-05 18:38 32.78975 -97.28282 9756 ft 267 kts 294°
2026-05-05 18:38 32.79858 -97.30223 10176 ft 270 kts 294°
2026-05-05 18:39 32.80762 -97.32231 10397 ft 281 kts 294°
2026-05-05 18:39 32.81701 -97.34332 10601 ft 293 kts 294°
2026-05-05 18:39 32.82674 -97.36512 10827 ft 304 kts 294°
2026-05-05 18:39 32.83683 -97.38777 11034 ft 315 kts 294°
2026-05-05 18:40 32.84723 -97.41114 11223 ft 325 kts 293°
2026-05-05 18:40 32.85794 -97.43524 11420 ft 334 kts 294°
2026-05-05 18:40 32.86896 -97.46003 11644 ft 344 kts 294°
2026-05-05 18:40 32.88028 -97.48553 11848 ft 353 kts 294°
2026-05-05 18:41 32.89187 -97.51163 12171 ft 361 kts 294°
2026-05-05 18:41 32.90370 -97.53827 12454 ft 366 kts 294°
2026-05-05 18:41 32.91550 -97.56486 12855 ft 368 kts 293°
2026-05-05 18:41 32.92747 -97.59186 13300 ft 369 kts 293°
2026-05-05 18:42 32.93954 -97.61910 13679 ft 372 kts 293°
2026-05-05 18:42 32.95158 -97.64634 14023 ft 373 kts 292°
2026-05-05 18:42 32.96372 -97.67384 14358 ft 375 kts 292°
2026-05-05 18:42 32.97589 -97.70142 14691 ft 377 kts 292°
2026-05-05 18:43 32.98811 -97.72914 15045 ft 378 kts 292°
2026-05-05 18:43 32.99989 -97.75716 15362 ft 378 kts 289°
2026-05-05 18:43 33.01048 -97.78586 15694 ft 379 kts 288°
2026-05-05 18:43 33.02099 -97.81472 16016 ft 380 kts 288°
2026-05-05 18:44 33.03162 -97.84361 16316 ft 382 kts 289°
2026-05-05 18:44 33.04239 -97.87264 16636 ft 384 kts 289°
2026-05-05 18:44 33.05324 -97.90180 16839 ft 385 kts 289°
2026-05-05 18:44 33.06416 -97.93107 17173 ft 387 kts 289°
2026-05-05 18:45 33.07498 -97.96006 17483 ft 388 kts 289°
2026-05-05 18:45 33.08596 -97.98950 17822 ft 390 kts 288°
2026-05-05 18:45 33.09701 -98.01913 18131 ft 391 kts 288°
2026-05-05 18:45 33.10810 -98.04888 18441 ft 392 kts 288°
2026-05-05 18:46 33.11915 -98.07855 18775 ft 391 kts 288°
2026-05-05 18:46 33.13020 -98.10823 19109 ft 391 kts 288°
2026-05-05 18:46 33.14125 -98.13793 19473 ft 391 kts 288°
2026-05-05 18:46 33.15228 -98.16763 19820 ft 391 kts 288°
2026-05-05 18:47 33.16316 -98.19693 20185 ft 390 kts 288°
2026-05-05 18:47 33.17412 -98.22651 20527 ft 390 kts 288°
2026-05-05 18:47 33.18512 -98.25612 20875 ft 390 kts 288°
2026-05-05 18:47 33.19616 -98.28580 21233 ft 390 kts 288°
2026-05-05 18:48 33.20715 -98.31541 21565 ft 390 kts 288°
2026-05-05 18:48 33.21815 -98.34510 21922 ft 391 kts 288°
2026-05-05 18:48 33.22916 -98.37480 22260 ft 390 kts 288°
2026-05-05 18:48 33.24016 -98.40452 22579 ft 391 kts 288°
2026-05-05 18:49 33.25112 -98.43419 22868 ft 391 kts 288°
2026-05-05 18:49 33.26200 -98.46363 23235 ft 391 kts 288°
2026-05-05 18:49 33.27300 -98.49341 23505 ft 392 kts 288°
2026-05-05 18:49 33.28402 -98.52333 23706 ft 394 kts 288°
2026-05-05 18:50 33.29509 -98.55336 23896 ft 396 kts 288°
2026-05-05 18:50 33.30620 -98.58356 24119 ft 397 kts 288°
2026-05-05 18:50 33.31732 -98.61378 24331 ft 398 kts 288°
2026-05-05 18:50 33.32850 -98.64420 24547 ft 400 kts 288°
2026-05-05 18:51 33.33970 -98.67471 24789 ft 401 kts 288°
2026-05-05 18:51 33.35092 -98.70528 25032 ft 402 kts 288°
2026-05-05 18:51 33.36221 -98.73607 25263 ft 404 kts 287°
2026-05-05 18:51 33.37354 -98.76703 25492 ft 407 kts 287°
2026-05-05 18:52 33.38473 -98.79761 25872 ft 405 kts 287°
2026-05-05 18:52 33.39601 -98.82844 26209 ft 405 kts 287°
2026-05-05 18:52 33.40732 -98.85942 26424 ft 407 kts 287°
2026-05-05 18:52 33.41867 -98.89058 26646 ft 409 kts 287°
2026-05-05 18:53 33.43006 -98.92184 26884 ft 411 kts 287°
2026-05-05 18:53 33.44149 -98.95324 27114 ft 412 kts 287°
2026-05-05 18:53 33.45299 -98.98484 27337 ft 414 kts 287°
2026-05-05 18:53 33.46451 -99.01654 27563 ft 415 kts 287°
2026-05-05 18:54 33.47606 -99.04836 27794 ft 417 kts 287°
2026-05-05 18:54 33.48765 -99.08029 28000 ft 418 kts 287°
2026-05-05 18:54 33.49923 -99.11225 28177 ft 420 kts 287°
2026-05-05 18:54 33.51075 -99.14411 28339 ft 423 kts 287°
2026-05-05 18:55 33.52246 -99.17646 28573 ft 423 kts 287°
2026-05-05 18:55 33.53413 -99.20873 28914 ft 421 kts 287°
2026-05-05 18:55 33.54576 -99.24094 29221 ft 420 kts 287°
2026-05-05 18:55 33.55736 -99.27308 29512 ft 419 kts 287°
2026-05-05 18:56 33.56890 -99.30511 29777 ft 418 kts 286°
2026-05-05 18:56 33.58042 -99.33713 30014 ft 417 kts 286°
2026-05-05 18:56 33.59190 -99.36907 30240 ft 417 kts 286°
2026-05-05 18:56 33.60364 -99.40088 30468 ft 418 kts 288°
2026-05-05 18:57 33.61781 -99.43164 30688 ft 425 kts 294°
2026-05-05 18:57 33.63544 -99.46042 30888 ft 432 kts 300°
2026-05-05 18:57 33.65490 -99.48802 31100 ft 433 kts 301°
2026-05-05 18:57 33.67459 -99.51489 31287 ft 434 kts 301°
2026-05-05 18:58 33.69468 -99.54186 31473 ft 433 kts 302°
2026-05-05 18:58 33.71475 -99.56873 31661 ft 433 kts 302°
2026-05-05 18:58 33.73478 -99.59564 31847 ft 432 kts 301°
2026-05-05 18:58 33.75482 -99.62269 32049 ft 431 kts 301°
2026-05-05 18:59 33.77466 -99.64961 32206 ft 430 kts 301°
2026-05-05 18:59 33.79443 -99.67654 32371 ft 429 kts 301°
2026-05-05 18:59 33.81409 -99.70339 32536 ft 429 kts 301°
2026-05-05 18:59 33.83383 -99.73035 32748 ft 428 kts 301°
2026-05-05 19:00 33.85346 -99.75718 32980 ft 425 kts 301°
2026-05-05 19:00 33.87304 -99.78395 33187 ft 424 kts 301°
2026-05-05 19:00 33.89248 -99.81057 33312 ft 424 kts 301°
2026-05-05 19:00 33.91193 -99.83722 33466 ft 423 kts 301°
2026-05-05 19:01 33.95053 -99.89021 33679 ft 423 kts 301°
2026-05-05 19:01 33.98941 -99.94367 33771 ft 426 kts 301°
2026-05-05 19:02 34.02863 -99.99771 33785 ft 429 kts 301°
2026-05-05 19:02 34.06796 -100.05185 33819 ft 429 kts 301°
2026-05-05 19:03 34.10729 -100.10607 33788 ft 429 kts 301°
2026-05-05 19:03 34.14637 -100.16004 33816 ft 429 kts 301°
2026-05-05 19:04 34.18562 -100.21434 33839 ft 429 kts 300°
2026-05-05 19:04 34.22491 -100.26884 33850 ft 431 kts 300°
2026-05-05 19:05 34.26430 -100.32353 33805 ft 431 kts 300°
2026-05-05 19:05 34.30374 -100.37834 33808 ft 431 kts 300°
2026-05-05 19:06 34.34321 -100.43329 33811 ft 432 kts 300°
2026-05-05 19:06 34.38258 -100.48821 33808 ft 432 kts 300°
2026-05-05 19:07 34.42193 -100.54317 33808 ft 432 kts 300°
2026-05-05 19:07 34.46131 -100.59829 33814 ft 432 kts 299°
2026-05-05 19:08 34.50043 -100.65311 33813 ft 432 kts 299°
2026-05-05 19:08 34.53973 -100.70825 33826 ft 431 kts 299°
2026-05-05 19:09 34.57880 -100.76311 33819 ft 428 kts 299°
2026-05-05 19:09 34.61747 -100.81758 33818 ft 428 kts 299°
2026-05-05 19:10 34.65633 -100.87240 33816 ft 428 kts 299°
2026-05-05 19:10 34.69514 -100.92723 33820 ft 428 kts 299°
2026-05-05 19:11 34.73395 -100.98213 33818 ft 428 kts 299°
2026-05-05 19:11 34.77269 -101.03702 33820 ft 427 kts 299°
2026-05-05 19:12 34.81138 -101.09191 33817 ft 427 kts 299°
2026-05-05 19:12 34.85000 -101.14680 33823 ft 427 kts 299°
2026-05-05 19:13 34.88856 -101.20170 33824 ft 426 kts 299°
2026-05-05 19:13 34.92684 -101.25628 33824 ft 426 kts 299°
2026-05-05 19:14 34.96542 -101.31137 33828 ft 426 kts 298°
2026-05-05 19:14 35.00402 -101.36660 33829 ft 428 kts 298°
2026-05-05 19:15 35.04276 -101.42212 33838 ft 429 kts 298°
2026-05-05 19:15 35.08144 -101.47761 33816 ft 429 kts 298°
2026-05-05 19:16 35.11992 -101.53289 33840 ft 429 kts 298°
2026-05-05 19:16 35.15859 -101.58855 33958 ft 429 kts 298°
2026-05-05 19:17 35.19723 -101.64425 33980 ft 429 kts 298°
2026-05-05 19:17 35.23590 -101.70012 33964 ft 432 kts 298°
2026-05-05 19:18 35.27385 -101.75720 33962 ft 433 kts 296°
2026-05-05 19:18 35.31102 -101.81516 33946 ft 432 kts 296°
2026-05-05 19:19 35.34792 -101.87264 33919 ft 432 kts 296°
2026-05-05 19:19 35.38517 -101.93034 33898 ft 432 kts 296°
2026-05-05 19:20 35.42253 -101.98817 33875 ft 432 kts 296°
2026-05-05 19:20 35.45984 -102.04599 33863 ft 432 kts 296°
2026-05-05 19:21 35.49718 -102.10399 33860 ft 434 kts 296°
2026-05-05 19:21 35.53459 -102.16219 33866 ft 434 kts 296°
2026-05-05 19:22 35.57194 -102.22037 33866 ft 434 kts 296°
2026-05-05 19:22 35.60929 -102.27868 33864 ft 434 kts 296°
2026-05-05 19:23 35.64032 -102.32720 33863 ft 435 kts 296°
2026-05-05 19:23 35.68385 -102.39544 33871 ft 436 kts 296°
2026-05-05 19:24 35.71509 -102.44444 33860 ft 437 kts 296°
2026-05-05 19:24 35.75263 -102.50341 33881 ft 438 kts 296°
2026-05-05 19:25 35.79018 -102.56250 33871 ft 438 kts 296°
2026-05-05 19:25 35.82769 -102.62162 33861 ft 438 kts 296°
2026-05-05 19:26 35.86516 -102.68078 33945 ft 436 kts 296°
2026-05-05 19:26 35.90247 -102.73978 33944 ft 436 kts 296°
2026-05-05 19:27 35.93974 -102.79887 33933 ft 436 kts 296°
2026-05-05 19:27 35.97694 -102.85794 33920 ft 436 kts 296°
2026-05-05 19:28 36.01415 -102.91712 33897 ft 436 kts 296°
2026-05-05 19:28 36.05136 -102.97640 33896 ft 436 kts 296°
2026-05-05 19:29 36.08823 -103.03524 33875 ft 436 kts 296°
2026-05-05 19:29 36.12538 -103.09462 33872 ft 436 kts 296°
2026-05-05 19:30 36.16253 -103.15411 33906 ft 436 kts 296°
2026-05-05 19:30 36.19963 -103.21363 33919 ft 437 kts 296°
2026-05-05 19:31 36.23680 -103.27335 33926 ft 437 kts 296°
2026-05-05 19:31 36.27374 -103.33281 33930 ft 438 kts 296°
2026-05-05 19:32 36.31089 -103.39274 33920 ft 439 kts 296°
2026-05-05 19:32 36.34804 -103.45273 33909 ft 438 kts 296°
2026-05-05 19:33 36.38526 -103.51294 33888 ft 439 kts 296°
2026-05-05 19:33 36.42241 -103.57320 33865 ft 440 kts 296°
2026-05-05 19:34 36.45966 -103.63369 33880 ft 441 kts 296°
2026-05-05 19:35 36.51518 -103.72404 33844 ft 440 kts 296°
2026-05-05 19:35 36.55234 -103.78463 33830 ft 440 kts 296°
2026-05-05 19:36 36.58946 -103.84528 33825 ft 440 kts 296°
2026-05-05 19:36 36.62656 -103.90602 33831 ft 441 kts 296°
2026-05-05 19:37 36.66375 -103.96703 33822 ft 441 kts 296°
2026-05-05 19:37 36.70056 -104.02748 33810 ft 441 kts 296°
2026-05-05 19:38 36.73763 -104.08848 33797 ft 441 kts 296°
2026-05-05 19:38 36.77465 -104.14951 33822 ft 441 kts 296°
2026-05-05 19:39 36.81166 -104.21065 33845 ft 441 kts 296°
2026-05-05 19:39 36.84841 -104.27149 33854 ft 442 kts 296°
2026-05-05 19:40 36.88544 -104.33279 33854 ft 441 kts 296°
2026-05-05 19:40 36.92228 -104.39399 33852 ft 441 kts 295°
2026-05-05 19:41 36.95908 -104.45528 33838 ft 440 kts 295°
2026-05-05 19:41 36.99588 -104.51657 33826 ft 440 kts 295°
2026-05-05 19:42 37.03261 -104.57788 33806 ft 440 kts 295°
2026-05-05 19:42 37.06930 -104.63933 33797 ft 439 kts 295°
2026-05-05 19:43 37.10585 -104.70056 33786 ft 438 kts 295°
2026-05-05 19:43 37.14227 -104.76169 33767 ft 438 kts 295°
2026-05-05 19:44 37.17875 -104.82303 33782 ft 438 kts 295°
2026-05-05 19:44 37.21510 -104.88432 33781 ft 438 kts 295°
2026-05-05 19:45 37.25123 -104.94535 33812 ft 438 kts 295°
2026-05-05 19:45 37.28745 -105.00648 33789 ft 434 kts 295°
2026-05-05 19:46 37.32338 -105.06745 33791 ft 434 kts 294°
2026-05-05 19:46 37.35924 -105.12840 33792 ft 433 kts 294°
2026-05-05 19:47 37.39511 -105.18941 33814 ft 434 kts 294°
2026-05-05 19:47 37.43092 -105.25045 33781 ft 433 kts 294°
2026-05-05 19:48 37.46667 -105.31158 33793 ft 434 kts 294°
2026-05-05 19:48 37.50248 -105.37282 33783 ft 435 kts 294°
2026-05-05 19:49 37.53841 -105.43423 33780 ft 435 kts 294°
2026-05-05 19:49 37.57417 -105.49566 33804 ft 435 kts 294°
2026-05-05 19:50 37.60979 -105.55683 33796 ft 435 kts 294°
2026-05-05 19:50 37.64551 -105.61839 33797 ft 434 kts 294°
2026-05-05 19:51 37.68111 -105.67984 33776 ft 434 kts 294°
2026-05-05 19:51 37.71677 -105.74153 33755 ft 435 kts 294°
2026-05-05 19:52 37.75248 -105.80338 33727 ft 435 kts 294°
2026-05-05 19:52 37.78790 -105.86484 33696 ft 435 kts 294°
2026-05-05 19:53 37.82352 -105.92678 33709 ft 435 kts 294°
2026-05-05 19:53 37.85913 -105.98884 33724 ft 436 kts 294°
2026-05-05 19:54 37.89479 -106.05114 33738 ft 438 kts 294°
2026-05-05 19:54 37.93057 -106.11371 33748 ft 439 kts 294°
2026-05-05 19:55 37.96641 -106.17646 33747 ft 439 kts 294°
2026-05-05 19:55 38.00220 -106.23930 33719 ft 439 kts 295°
2026-05-05 19:56 38.03801 -106.30209 33696 ft 439 kts 295°
2026-05-05 19:56 38.07367 -106.36508 33719 ft 440 kts 295°
2026-05-05 19:57 38.10927 -106.42803 33718 ft 444 kts 295°
2026-05-05 19:57 38.14539 -106.49171 33726 ft 444 kts 295°
2026-05-05 19:58 38.18137 -106.55547 33740 ft 444 kts 296°
2026-05-05 19:58 38.21731 -106.61942 33722 ft 445 kts 296°
2026-05-05 19:59 38.25339 -106.68361 33735 ft 445 kts 296°
2026-05-05 19:59 38.28943 -106.74789 33728 ft 448 kts 296°
2026-05-05 20:00 38.32565 -106.81271 33731 ft 449 kts 296°
2026-05-05 20:00 38.36172 -106.87724 33849 ft 450 kts 297°
2026-05-05 20:01 38.39819 -106.94267 33852 ft 454 kts 297°
2026-05-05 20:01 38.43480 -107.00838 33863 ft 454 kts 297°
2026-05-05 20:02 38.47128 -107.07421 33856 ft 455 kts 298°
2026-05-05 20:02 38.50754 -107.14066 33838 ft 456 kts 297°
2026-05-05 20:03 38.54370 -107.20730 33819 ft 457 kts 298°
2026-05-05 20:03 38.57998 -107.27423 33792 ft 459 kts 298°
2026-05-05 20:04 38.61639 -107.34130 33748 ft 458 kts 298°
2026-05-05 20:04 38.65270 -107.40830 33733 ft 458 kts 298°
2026-05-05 20:05 38.68904 -107.47548 33718 ft 461 kts 298°
2026-05-05 20:05 38.72553 -107.54303 33726 ft 462 kts 299°
2026-05-05 20:06 38.76191 -107.61058 33704 ft 463 kts 299°
2026-05-05 20:06 38.79844 -107.67858 33708 ft 464 kts 299°
2026-05-05 20:07 38.83505 -107.74688 33698 ft 464 kts 299°
2026-05-05 20:07 38.87161 -107.81524 33782 ft 466 kts 300°
2026-05-05 20:08 38.90834 -107.88408 33785 ft 469 kts 300°
2026-05-05 20:08 38.94522 -107.95329 33787 ft 470 kts 300°
2026-05-05 20:09 38.98201 -108.02250 33770 ft 470 kts 300°
2026-05-05 20:09 39.01884 -108.09194 33747 ft 469 kts 300°
2026-05-05 20:10 39.05565 -108.16151 33710 ft 470 kts 301°
2026-05-05 20:10 39.09225 -108.23085 33735 ft 472 kts 301°
2026-05-05 20:11 39.12299 -108.28915 33749 ft 473 kts 301°
2026-05-05 20:11 39.15990 -108.35930 33783 ft 473 kts 301°
2026-05-05 20:12 39.19685 -108.42970 33803 ft 473 kts 301°
2026-05-05 20:12 39.23379 -108.50029 33796 ft 475 kts 302°
2026-05-05 20:13 39.27056 -108.57067 33759 ft 476 kts 302°
2026-05-05 20:13 39.30752 -108.64152 33732 ft 476 kts 302°
2026-05-05 20:14 39.34446 -108.71249 33719 ft 476 kts 302°
2026-05-05 20:14 39.38131 -108.78349 33691 ft 475 kts 303°
2026-05-05 20:15 39.41811 -108.85454 33675 ft 476 kts 302°
2026-05-05 20:15 39.45490 -108.92576 33715 ft 475 kts 302°
2026-05-05 20:16 39.49151 -108.99677 33695 ft 475 kts 302°
2026-05-05 20:16 39.52823 -109.06812 33728 ft 475 kts 302°
2026-05-05 20:17 39.56464 -109.13907 33726 ft 475 kts 303°
2026-05-05 20:17 39.60129 -109.21070 33733 ft 478 kts 303°
2026-05-05 20:18 39.63794 -109.28242 33752 ft 475 kts 303°
2026-05-05 20:18 39.67430 -109.35367 33754 ft 477 kts 303°
2026-05-05 20:19 39.71085 -109.42552 33759 ft 476 kts 303°
2026-05-05 20:19 39.74722 -109.49721 33758 ft 476 kts 304°
2026-05-05 20:20 39.78379 -109.56941 33763 ft 479 kts 304°
2026-05-05 20:20 39.82038 -109.64183 33762 ft 479 kts 304°
2026-05-05 20:21 39.85690 -109.71429 33760 ft 479 kts 305°
2026-05-05 20:21 39.89324 -109.78661 33762 ft 475 kts 305°
2026-05-05 20:22 39.92921 -109.85826 33748 ft 475 kts 306°
2026-05-05 20:22 39.96538 -109.93051 33756 ft 476 kts 306°
2026-05-05 20:23 40.00147 -110.00276 33748 ft 476 kts 306°
2026-05-05 20:23 40.03664 -110.07595 33756 ft 473 kts 305°
2026-05-05 20:24 40.07055 -110.14924 33759 ft 471 kts 306°
2026-05-05 20:24 40.10464 -110.22274 33770 ft 475 kts 306°
2026-05-05 20:25 40.13903 -110.29653 33784 ft 475 kts 306°
2026-05-05 20:25 40.17340 -110.37033 33788 ft 474 kts 307°
2026-05-05 20:26 40.20732 -110.44336 33797 ft 471 kts 307°
2026-05-05 20:26 40.24126 -110.51651 33797 ft 471 kts 308°
2026-05-05 20:27 40.27543 -110.59026 33806 ft 474 kts 307°
2026-05-05 20:27 40.30954 -110.66421 33811 ft 474 kts 307°
2026-05-05 20:28 40.34350 -110.73805 33811 ft 473 kts 308°
2026-05-05 20:28 40.37741 -110.81191 33828 ft 472 kts 308°
2026-05-05 20:29 40.41136 -110.88593 33828 ft 474 kts 308°
2026-05-05 20:29 40.44509 -110.95968 33838 ft 474 kts 308°
2026-05-05 20:30 40.47898 -111.03403 33872 ft 474 kts 308°
2026-05-05 20:30 40.51277 -111.10838 33903 ft 473 kts 308°
2026-05-05 20:31 40.54653 -111.18280 33928 ft 475 kts 308°
2026-05-05 20:31 40.58040 -111.25757 33942 ft 476 kts 308°
2026-05-05 20:32 40.61426 -111.33254 33947 ft 476 kts 308°
2026-05-05 20:32 40.64799 -111.40744 33940 ft 475 kts 308°
2026-05-05 20:33 40.68153 -111.48207 33921 ft 475 kts 308°
2026-05-05 20:33 40.71513 -111.55706 33895 ft 475 kts 308°
2026-05-05 20:34 40.74875 -111.63225 33863 ft 476 kts 308°
2026-05-05 20:34 40.78225 -111.70733 33884 ft 476 kts 308°
2026-05-05 20:35 40.81584 -111.78272 33907 ft 476 kts 307°
2026-05-05 20:35 40.84909 -111.85765 33917 ft 476 kts 308°
2026-05-05 20:36 40.88262 -111.93341 33923 ft 476 kts 307°
2026-05-05 20:36 40.91597 -112.00896 33908 ft 474 kts 307°
2026-05-05 20:37 40.94892 -112.08378 33884 ft 474 kts 307°
2026-05-05 20:37 40.98211 -112.15926 33889 ft 474 kts 307°
2026-05-05 20:38 41.01535 -112.23503 33865 ft 476 kts 307°
2026-05-05 20:38 41.04849 -112.31086 33842 ft 474 kts 307°
2026-05-05 20:39 41.08141 -112.38639 33820 ft 473 kts 307°
2026-05-05 20:39 41.11429 -112.46192 33781 ft 473 kts 307°
2026-05-05 20:40 41.14725 -112.53781 33788 ft 475 kts 307°
2026-05-05 20:40 41.18015 -112.61377 33793 ft 474 kts 307°
2026-05-05 20:41 41.21296 -112.68979 33794 ft 473 kts 307°
2026-05-05 20:41 41.24545 -112.76523 33796 ft 473 kts 307°
2026-05-05 20:42 41.27815 -112.84130 33797 ft 474 kts 307°
2026-05-05 20:42 41.31078 -112.91744 33794 ft 473 kts 307°
2026-05-05 20:43 41.34328 -112.99352 33796 ft 472 kts 307°
2026-05-05 20:43 41.37567 -113.06946 33794 ft 472 kts 307°
2026-05-05 20:44 41.40801 -113.14544 33791 ft 473 kts 307°
2026-05-05 20:44 41.44023 -113.22135 33790 ft 472 kts 307°
2026-05-05 20:45 41.48850 -113.33558 33787 ft 471 kts 307°
2026-05-05 20:45 41.52058 -113.41165 33787 ft 471 kts 307°
2026-05-05 20:46 41.55271 -113.48802 33790 ft 472 kts 307°
2026-05-05 20:46 41.58492 -113.56479 33796 ft 472 kts 307°
2026-05-05 20:47 41.61673 -113.64088 33800 ft 472 kts 307°
2026-05-05 20:47 41.64870 -113.71752 33804 ft 472 kts 307°
2026-05-05 20:48 41.68065 -113.79426 33802 ft 472 kts 307°
2026-05-05 20:48 41.71254 -113.87108 33809 ft 471 kts 307°
2026-05-05 20:49 41.74430 -113.94783 33810 ft 471 kts 307°
2026-05-05 20:49 41.77601 -114.02460 33804 ft 470 kts 307°
2026-05-05 20:50 41.80228 -114.08832 33798 ft 471 kts 307°
2026-05-05 20:50 41.83904 -114.17779 33800 ft 471 kts 306°
2026-05-05 20:51 41.87058 -114.25480 33804 ft 470 kts 306°
2026-05-05 20:51 41.90201 -114.33171 33798 ft 470 kts 306°
2026-05-05 20:52 41.93345 -114.40881 33782 ft 470 kts 306°
2026-05-05 20:52 41.96489 -114.48611 33797 ft 471 kts 306°
2026-05-05 20:53 41.99621 -114.56343 33803 ft 470 kts 306°
2026-05-05 20:53 42.02742 -114.64060 33808 ft 470 kts 306°
2026-05-05 20:54 42.05865 -114.71804 33804 ft 470 kts 306°
2026-05-05 20:54 42.08980 -114.79548 33809 ft 470 kts 306°
2026-05-05 20:55 42.12091 -114.87301 33809 ft 470 kts 306°
2026-05-05 20:55 42.15181 -114.95023 33810 ft 471 kts 306°
2026-05-05 20:56 42.18285 -115.02802 33805 ft 471 kts 306°
2026-05-05 20:56 42.21373 -115.10556 33819 ft 472 kts 306°
2026-05-05 20:57 42.24474 -115.18371 33819 ft 472 kts 306°
2026-05-05 20:57 42.27569 -115.26191 33822 ft 472 kts 306°
2026-05-05 20:58 42.30141 -115.32702 33807 ft 472 kts 306°
2026-05-05 20:58 42.33724 -115.41800 33826 ft 471 kts 305°
2026-05-05 20:59 42.36282 -115.48314 33821 ft 471 kts 305°
2026-05-05 20:59 42.39348 -115.56140 33826 ft 471 kts 305°
2026-05-05 21:00 42.42928 -115.65299 33829 ft 471 kts 305°
2026-05-05 21:00 42.45474 -115.71832 33831 ft 472 kts 305°
2026-05-05 21:01 42.48535 -115.79713 33840 ft 472 kts 305°
2026-05-05 21:01 42.51585 -115.87588 33839 ft 472 kts 305°
2026-05-05 21:02 42.54632 -115.95472 33830 ft 472 kts 304°
2026-05-05 21:02 42.57676 -116.03371 33847 ft 472 kts 304°
2026-05-05 21:03 42.60711 -116.11267 33848 ft 472 kts 304°
2026-05-05 21:03 42.63746 -116.19186 33848 ft 472 kts 304°
2026-05-05 21:04 42.66770 -116.27097 33844 ft 472 kts 304°
2026-05-05 21:04 42.69799 -116.35041 33855 ft 473 kts 304°
2026-05-05 21:05 42.72804 -116.42949 33856 ft 473 kts 304°
2026-05-05 21:05 42.75821 -116.50912 33861 ft 473 kts 304°
2026-05-05 21:06 42.78832 -116.58876 33862 ft 473 kts 304°
2026-05-05 21:06 42.81822 -116.66810 33866 ft 473 kts 303°
2026-05-05 21:07 42.84819 -116.74783 33864 ft 473 kts 303°
2026-05-05 21:07 42.87815 -116.82779 33874 ft 473 kts 303°
2026-05-05 21:08 42.90804 -116.90775 33865 ft 473 kts 303°
2026-05-05 21:08 42.93780 -116.98754 33878 ft 475 kts 303°
2026-05-05 21:09 42.96769 -117.06799 33874 ft 475 kts 303°
2026-05-05 21:09 42.99754 -117.14857 33873 ft 475 kts 303°
2026-05-05 21:10 43.02732 -117.22916 33871 ft 475 kts 303°
2026-05-05 21:10 43.05709 -117.30997 33872 ft 475 kts 303°
2026-05-05 21:11 43.08676 -117.39076 33879 ft 475 kts 303°
2026-05-05 21:11 43.11640 -117.47165 33876 ft 475 kts 303°
2026-05-05 21:12 43.14603 -117.55277 33869 ft 475 kts 303°
2026-05-05 21:12 43.17562 -117.63400 33876 ft 477 kts 303°
2026-05-05 21:13 43.20499 -117.71485 33874 ft 477 kts 302°
2026-05-05 21:13 43.23449 -117.79635 33880 ft 477 kts 302°
2026-05-05 21:14 43.26393 -117.87791 33880 ft 477 kts 302°
2026-05-05 21:14 43.29331 -117.95953 33882 ft 477 kts 302°
2026-05-05 21:15 43.32273 -118.04145 33882 ft 477 kts 302°
2026-05-05 21:15 43.35195 -118.12313 33879 ft 477 kts 302°
2026-05-05 21:16 43.38117 -118.20502 33863 ft 478 kts 302°
2026-05-05 21:16 43.41029 -118.28684 33871 ft 480 kts 302°
2026-05-05 21:17 43.43957 -118.36941 33894 ft 480 kts 302°
2026-05-05 21:17 43.46880 -118.45206 33871 ft 480 kts 302°
2026-05-05 21:18 43.49794 -118.53474 33894 ft 481 kts 302°
2026-05-05 21:18 43.52711 -118.61772 33920 ft 481 kts 301°
2026-05-05 21:19 43.55606 -118.70037 33948 ft 481 kts 301°
2026-05-05 21:19 43.58516 -118.78364 33971 ft 481 kts 301°
2026-05-05 21:20 43.61414 -118.86685 33868 ft 482 kts 301°
2026-05-05 21:20 43.64318 -118.95048 33891 ft 483 kts 301°
2026-05-05 21:21 43.67219 -119.03427 33900 ft 483 kts 301°
2026-05-05 21:21 43.70096 -119.11763 33908 ft 483 kts 301°
2026-05-05 21:22 43.72982 -119.20153 33908 ft 483 kts 301°
2026-05-05 21:22 43.75860 -119.28545 33914 ft 482 kts 301°
2026-05-05 21:23 43.78731 -119.36941 33918 ft 482 kts 301°
2026-05-05 21:23 43.81598 -119.45349 33919 ft 483 kts 301°
2026-05-05 21:24 43.84441 -119.53716 33923 ft 483 kts 301°
2026-05-05 21:24 43.87298 -119.62151 33926 ft 484 kts 301°
2026-05-05 21:25 43.90152 -119.70599 33925 ft 484 kts 300°
2026-05-05 21:25 43.93003 -119.79067 33922 ft 484 kts 300°
2026-05-05 21:26 43.95846 -119.87541 33941 ft 484 kts 300°
2026-05-05 21:26 43.98683 -119.96020 33923 ft 484 kts 300°
2026-05-05 21:27 44.01420 -120.04504 33925 ft 486 kts 297°
2026-05-05 21:27 44.03685 -120.13390 33943 ft 489 kts 294°
2026-05-05 21:28 44.05856 -120.22363 33925 ft 488 kts 294°
2026-05-05 21:28 44.08090 -120.31284 33933 ft 488 kts 295°
2026-05-05 21:29 44.10364 -120.40184 33933 ft 488 kts 295°
2026-05-05 21:29 44.12643 -120.49090 33936 ft 488 kts 295°
2026-05-05 21:30 44.14915 -120.58012 33938 ft 488 kts 295°
2026-05-05 21:30 44.17169 -120.66910 33938 ft 487 kts 295°
2026-05-05 21:31 44.19400 -120.75755 33937 ft 487 kts 295°
2026-05-05 21:31 44.21641 -120.84668 33936 ft 487 kts 294°
2026-05-05 21:32 44.23876 -120.93591 33937 ft 487 kts 294°
2026-05-05 21:32 44.26101 -121.02512 33988 ft 487 kts 294°
2026-05-05 21:33 44.28320 -121.11450 33989 ft 487 kts 294°
2026-05-05 21:33 44.30534 -121.20398 33938 ft 487 kts 294°
2026-05-05 21:34 44.32730 -121.29301 33937 ft 487 kts 294°
2026-05-05 21:34 44.34925 -121.38241 33943 ft 487 kts 294°
2026-05-05 21:35 44.37118 -121.47206 33956 ft 487 kts 294°
2026-05-05 21:35 44.39306 -121.56187 33957 ft 487 kts 294°
2026-05-05 21:36 44.41483 -121.65160 33959 ft 487 kts 294°
2026-05-05 21:36 44.43651 -121.74132 33972 ft 487 kts 294°
2026-05-05 21:37 44.45814 -121.83113 33988 ft 486 kts 293°
2026-05-05 21:37 44.47967 -121.92099 33989 ft 487 kts 293°
2026-05-05 21:38 44.50114 -122.01091 34017 ft 486 kts 293°
2026-05-05 21:38 44.52239 -122.10028 34012 ft 487 kts 293°
2026-05-05 21:39 44.54371 -122.19031 34010 ft 486 kts 292°
2026-05-05 21:39 44.56493 -122.28022 34053 ft 485 kts 292°
2026-05-05 21:40 44.58605 -122.37008 34045 ft 485 kts 292°
2026-05-05 21:40 44.60716 -122.46020 34069 ft 485 kts 292°
2026-05-05 21:41 44.62816 -122.55034 34067 ft 485 kts 292°
2026-05-05 21:41 44.64909 -122.64048 34068 ft 484 kts 292°
2026-05-05 21:42 44.66972 -122.72977 34067 ft 484 kts 292°
2026-05-05 21:42 44.69045 -122.81985 34079 ft 485 kts 292°
2026-05-05 21:43 44.71111 -122.90997 34079 ft 485 kts 292°
2026-05-05 21:43 44.72923 -122.98930 34080 ft 485 kts 292°
2026-05-05 21:44 44.74982 -123.07980 34080 ft 485 kts 292°
2026-05-05 21:44 44.77016 -123.16956 34080 ft 484 kts 292°
2026-05-05 21:45 44.79056 -123.26003 34084 ft 484 kts 292°
2026-05-05 21:45 44.81089 -123.35049 34072 ft 484 kts 291°
2026-05-05 21:46 44.82778 -123.42591 34086 ft 486 kts 291°
2026-05-05 21:46 44.85134 -123.53165 34093 ft 486 kts 291°
2026-05-05 21:47 44.86824 -123.60788 34091 ft 486 kts 291°
2026-05-05 21:47 44.88832 -123.69876 34098 ft 486 kts 291°
2026-05-05 21:48 44.90826 -123.78940 34094 ft 486 kts 291°
2026-05-05 21:48 44.92823 -123.88055 34106 ft 485 kts 291°
2026-05-05 21:49 44.94807 -123.97149 34100 ft 485 kts 291°
2026-05-05 21:49 44.96788 -124.06265 34109 ft 486 kts 290°
2026-05-05 21:50 44.98765 -124.15405 34112 ft 487 kts 290°
2026-05-05 21:50 45.00737 -124.24562 34100 ft 487 kts 290°
2026-05-05 21:51 45.02697 -124.33706 34109 ft 486 kts 290°
2026-05-05 21:51 45.04639 -124.42806 34104 ft 486 kts 290°
2026-05-05 21:52 45.07559 -124.56563 34095 ft 486 kts 290°
2026-05-05 21:53 45.09494 -124.65729 34084 ft 486 kts 289°
2026-05-05 21:53 45.11426 -124.74917 34092 ft 487 kts 289°
2026-05-05 21:54 45.13351 -124.84125 34088 ft 487 kts 289°
2026-05-05 21:54 45.15269 -124.93338 34089 ft 487 kts 289°
2026-05-05 21:55 45.17179 -125.02550 34089 ft 487 kts 289°
2026-05-05 21:55 45.19083 -125.11773 34086 ft 487 kts 289°
2026-05-05 21:56 45.20967 -125.20946 34087 ft 487 kts 289°
2026-05-05 21:56 45.22852 -125.30167 34089 ft 487 kts 289°
2026-05-05 21:57 45.24734 -125.39416 34087 ft 487 kts 288°
2026-05-05 21:57 45.26609 -125.48669 34088 ft 488 kts 288°
2026-05-05 21:58 45.28465 -125.57873 34088 ft 488 kts 288°
2026-05-05 21:58 45.30325 -125.67136 34088 ft 488 kts 288°
2026-05-05 21:59 45.32178 -125.76413 34089 ft 488 kts 288°
2026-05-05 21:59 45.34024 -125.85697 34087 ft 488 kts 288°
2026-05-05 22:00 45.35852 -125.94930 34088 ft 487 kts 287°
2026-05-05 22:00 45.37680 -126.04207 34099 ft 487 kts 287°
2026-05-05 22:01 45.39502 -126.13506 34084 ft 487 kts 287°
2026-05-05 22:01 45.41314 -126.22798 34081 ft 488 kts 287°
2026-05-05 22:02 45.43121 -126.32104 34099 ft 488 kts 287°
2026-05-05 22:02 45.44922 -126.41423 34080 ft 487 kts 286°
2026-05-05 22:03 45.46712 -126.50733 34098 ft 487 kts 286°
2026-05-05 22:03 45.48483 -126.59986 34079 ft 487 kts 286°
2026-05-05 22:04 45.50257 -126.69304 34085 ft 487 kts 286°
2026-05-05 22:04 45.51961 -126.78658 34090 ft 487 kts 284°
2026-05-05 22:05 45.53475 -126.88068 34091 ft 487 kts 283°
2026-05-05 22:05 45.54975 -126.97508 34091 ft 486 kts 283°
2026-05-05 22:06 45.56483 -127.06861 34091 ft 486 kts 283°
2026-05-05 22:06 45.58008 -127.16280 34091 ft 486 kts 283°
2026-05-05 22:07 45.59530 -127.25707 34086 ft 486 kts 283°
2026-05-05 22:07 45.61029 -127.35057 34087 ft 485 kts 283°
2026-05-05 22:08 45.62528 -127.44466 34091 ft 485 kts 283°
2026-05-05 22:08 45.64018 -127.53874 34091 ft 485 kts 283°
2026-05-05 22:09 45.65500 -127.63288 34091 ft 485 kts 283°
2026-05-05 22:09 45.66975 -127.72700 34088 ft 485 kts 283°
2026-05-05 22:10 45.68434 -127.82072 34093 ft 485 kts 283°
2026-05-05 22:10 45.69892 -127.91495 34094 ft 485 kts 283°
2026-05-05 22:11 45.71342 -128.00915 34096 ft 485 kts 282°
2026-05-05 22:11 45.72778 -128.10301 34097 ft 485 kts 282°
2026-05-05 22:12 45.74212 -128.19728 34102 ft 485 kts 282°
2026-05-05 22:12 45.75638 -128.29161 34100 ft 485 kts 282°
2026-05-05 22:13 45.77056 -128.38599 34100 ft 485 kts 282°
2026-05-05 22:13 45.78468 -128.48047 34105 ft 485 kts 282°
2026-05-05 22:14 45.79872 -128.57502 34102 ft 485 kts 282°
2026-05-05 22:14 45.81265 -128.66931 34102 ft 483 kts 281°
2026-05-05 22:15 45.82639 -128.76304 34100 ft 483 kts 281°
2026-05-05 22:15 45.84013 -128.85731 34106 ft 482 kts 281°
2026-05-05 22:16 45.85378 -128.95152 34105 ft 482 kts 281°
2026-05-05 22:16 45.86737 -129.04586 34112 ft 481 kts 281°
2026-05-05 22:17 45.88074 -129.13929 34112 ft 481 kts 281°
2026-05-05 22:17 45.89413 -129.23337 34119 ft 481 kts 281°
2026-05-05 22:18 45.90745 -129.32760 34124 ft 482 kts 280°
2026-05-05 22:18 45.92070 -129.42193 34122 ft 481 kts 280°
2026-05-05 22:19 45.93385 -129.51603 34121 ft 479 kts 280°
2026-05-05 22:19 45.94690 -129.61015 34132 ft 480 kts 280°
2026-05-05 22:20 45.95978 -129.70358 34135 ft 477 kts 279°
2026-05-05 22:20 45.97256 -129.79711 34137 ft 478 kts 280°
2026-05-05 22:21 45.98536 -129.89123 34145 ft 479 kts 279°
2026-05-05 22:21 45.99963 -129.98493 34146 ft 483 kts 286°
2026-05-05 22:22 46.02651 -130.07386 34150 ft 485 kts 294°
2026-05-05 22:22 46.05739 -130.16017 34145 ft 485 kts 295°
2026-05-05 22:23 46.08885 -130.24637 34147 ft 486 kts 295°
2026-05-05 22:23 46.12009 -130.33274 34156 ft 486 kts 295°
2026-05-05 22:24 46.15113 -130.41938 34154 ft 486 kts 295°
2026-05-05 22:24 46.18204 -130.50614 34158 ft 487 kts 294°
2026-05-05 22:25 46.21295 -130.59310 34161 ft 486 kts 294°
2026-05-05 22:25 46.24359 -130.67956 34168 ft 486 kts 294°
2026-05-05 22:26 46.27435 -130.76664 34179 ft 487 kts 294°
2026-05-05 22:26 46.30512 -130.85406 34164 ft 487 kts 294°
2026-05-05 22:27 46.33578 -130.94146 34181 ft 487 kts 294°
2026-05-05 22:27 46.36640 -131.02899 34177 ft 487 kts 294°
2026-05-05 22:28 46.39702 -131.11685 34176 ft 488 kts 294°
2026-05-05 22:28 46.42738 -131.20428 34181 ft 488 kts 293°
2026-05-05 22:29 46.45793 -131.29246 34189 ft 489 kts 293°
2026-05-05 22:29 46.48842 -131.38081 34195 ft 490 kts 292°
2026-05-05 22:30 46.51896 -131.46963 34193 ft 491 kts 292°
2026-05-05 22:30 46.54941 -131.55849 34202 ft 491 kts 292°
2026-05-05 22:31 46.57976 -131.64734 34200 ft 491 kts 292°
2026-05-05 22:31 46.60994 -131.73594 34204 ft 492 kts 292°
2026-05-05 22:32 46.64021 -131.82517 34212 ft 492 kts 292°
2026-05-05 22:32 46.67047 -131.91470 34211 ft 492 kts 292°
2026-05-05 22:33 46.70063 -132.00419 34215 ft 492 kts 292°
2026-05-05 22:33 46.73074 -132.09380 34219 ft 493 kts 291°
2026-05-05 22:34 46.75576 -132.16856 34219 ft 493 kts 291°
2026-05-05 22:34 46.79068 -132.27324 34226 ft 493 kts 291°
2026-05-05 22:35 46.82062 -132.36332 34231 ft 493 kts 291°
2026-05-05 22:35 46.85053 -132.45360 34236 ft 494 kts 291°
2026-05-05 22:36 46.88039 -132.54410 34243 ft 494 kts 291°
2026-05-05 22:36 46.90516 -132.61933 34239 ft 495 kts 290°
2026-05-05 22:37 46.93498 -132.71026 34244 ft 495 kts 290°
2026-05-05 22:37 46.96471 -132.80126 34247 ft 495 kts 290°
2026-05-05 22:38 46.99437 -132.89240 34242 ft 495 kts 290°
2026-05-05 22:38 47.02379 -132.98308 34247 ft 495 kts 290°
2026-05-05 22:39 47.05333 -133.07441 34291 ft 495 kts 290°
2026-05-05 22:39 47.08278 -133.16580 34254 ft 495 kts 289°
2026-05-05 22:40 47.11212 -133.25720 34260 ft 495 kts 289°
2026-05-05 22:40 47.14144 -133.34887 34260 ft 495 kts 289°
2026-05-05 22:41 47.17063 -133.44046 34273 ft 495 kts 289°
2026-05-05 22:41 47.19979 -133.53226 34270 ft 495 kts 289°
2026-05-05 22:42 47.22884 -133.62406 34271 ft 495 kts 289°
2026-05-05 22:42 47.25762 -133.71534 34273 ft 495 kts 289°
2026-05-05 22:43 47.28657 -133.80747 34296 ft 495 kts 289°
2026-05-05 22:43 47.31532 -133.89927 34276 ft 492 kts 289°
2026-05-05 22:44 47.34387 -133.99085 34283 ft 492 kts 288°
2026-05-05 22:44 47.37236 -134.08255 34290 ft 491 kts 288°
2026-05-05 22:45 47.40074 -134.17424 34299 ft 490 kts 288°
2026-05-05 22:45 47.42896 -134.26568 34289 ft 489 kts 288°
2026-05-05 22:46 47.45704 -134.35707 34292 ft 489 kts 288°
2026-05-05 22:46 47.48492 -134.44811 34298 ft 488 kts 288°
2026-05-05 22:47 47.51284 -134.53965 34306 ft 488 kts 288°
2026-05-05 22:47 47.54069 -134.63122 34306 ft 487 kts 288°
2026-05-05 22:48 47.56840 -134.72273 34304 ft 487 kts 288°
2026-05-05 22:48 47.59602 -134.81428 34315 ft 487 kts 288°
2026-05-05 22:49 47.62343 -134.90544 34330 ft 486 kts 288°
2026-05-05 22:49 47.65086 -134.99702 34319 ft 486 kts 287°
2026-05-05 22:50 47.67826 -135.08880 34316 ft 486 kts 287°
2026-05-05 22:50 47.70553 -135.18054 34318 ft 486 kts 287°
2026-05-05 22:51 47.73279 -135.27258 34324 ft 486 kts 287°
2026-05-05 22:51 47.75991 -135.36447 34320 ft 485 kts 287°
2026-05-05 22:52 47.78675 -135.45576 34326 ft 485 kts 287°
2026-05-05 22:52 47.81375 -135.54794 34322 ft 486 kts 287°
2026-05-05 22:53 47.84068 -135.64022 34347 ft 486 kts 287°
2026-05-05 22:53 47.86756 -135.73272 34327 ft 487 kts 287°
2026-05-05 22:54 47.89439 -135.82536 34330 ft 487 kts 287°
2026-05-05 22:54 47.92113 -135.91804 34333 ft 487 kts 287°
2026-05-05 22:55 47.94779 -136.01079 34359 ft 487 kts 286°
2026-05-05 22:55 47.97441 -136.10376 34340 ft 487 kts 286°
2026-05-05 22:56 48.00098 -136.19695 34344 ft 487 kts 286°
2026-05-05 22:56 48.02726 -136.28944 34343 ft 487 kts 286°
2026-05-05 22:57 48.05369 -136.38283 34377 ft 487 kts 286°
2026-05-05 22:57 48.08001 -136.47621 34344 ft 488 kts 286°
2026-05-05 22:58 48.10626 -136.56971 34345 ft 488 kts 286°
2026-05-05 22:58 48.13249 -136.66348 34346 ft 488 kts 286°
2026-05-05 22:59 48.15863 -136.75728 34347 ft 488 kts 285°
2026-05-05 22:59 48.18467 -136.85112 34345 ft 488 kts 285°
2026-05-05 23:00 48.22344 -136.99143 34356 ft 488 kts 285°
2026-05-05 23:00 48.24940 -137.08592 34358 ft 490 kts 285°
2026-05-05 23:01 48.27533 -137.18079 34355 ft 491 kts 285°
2026-05-05 23:01 48.30122 -137.27576 34354 ft 491 kts 285°
2026-05-05 23:02 48.32704 -137.37083 34355 ft 491 kts 285°
2026-05-05 23:02 48.35278 -137.46603 34354 ft 491 kts 285°
2026-05-05 23:03 48.37828 -137.56072 34365 ft 492 kts 285°
2026-05-05 23:03 48.40387 -137.65620 34357 ft 493 kts 285°
2026-05-05 23:04 48.42944 -137.75193 34360 ft 493 kts 285°
2026-05-05 23:04 48.45495 -137.84781 34360 ft 493 kts 285°
2026-05-05 23:05 48.48035 -137.94368 34379 ft 493 kts 285°
2026-05-05 23:05 48.50571 -138.03983 34360 ft 494 kts 285°
2026-05-05 23:06 48.53087 -138.13562 34360 ft 494 kts 284°
2026-05-05 23:06 48.55609 -138.23199 34360 ft 494 kts 284°
2026-05-05 23:07 48.58121 -138.32839 34392 ft 494 kts 284°
2026-05-05 23:07 48.60623 -138.42487 34357 ft 494 kts 284°
2026-05-05 23:08 48.63130 -138.52191 34370 ft 494 kts 284°
2026-05-05 23:08 48.65622 -138.61876 34361 ft 494 kts 284°
2026-05-05 23:09 48.68103 -138.71563 34372 ft 494 kts 284°
2026-05-05 23:09 48.70559 -138.81193 34368 ft 493 kts 284°
2026-05-05 23:10 48.73021 -138.90885 34367 ft 493 kts 284°
2026-05-05 23:10 48.75476 -139.00594 34371 ft 493 kts 284°
2026-05-05 23:11 48.77922 -139.10306 34371 ft 493 kts 284°
2026-05-05 23:11 48.80355 -139.20013 34368 ft 492 kts 284°
2026-05-05 23:12 48.82783 -139.29737 34368 ft 492 kts 284°
2026-05-05 23:12 48.85187 -139.39410 34367 ft 492 kts 284°
2026-05-05 23:13 48.87595 -139.49139 34368 ft 492 kts 284°
2026-05-05 23:13 48.89999 -139.58899 34373 ft 492 kts 284°
2026-05-05 23:14 48.92390 -139.68643 34370 ft 492 kts 284°
2026-05-05 23:14 48.94772 -139.78397 34363 ft 492 kts 284°
2026-05-05 23:15 48.97143 -139.88148 34366 ft 492 kts 284°
2026-05-05 23:15 48.99533 -139.97912 34364 ft 493 kts 287°
2026-05-05 23:16 49.02628 -140.07250 34364 ft 499 kts 292°
2026-05-05 23:16 49.05979 -140.16535 34364 ft 500 kts 293°
2026-05-05 23:17 49.09357 -140.25805 34364 ft 500 kts 293°
2026-05-05 23:17 49.12721 -140.35102 34365 ft 499 kts 293°
2026-05-05 23:18 49.16059 -140.44395 34365 ft 499 kts 293°
2026-05-05 23:18 49.19396 -140.53728 34363 ft 500 kts 293°
2026-05-05 23:19 49.22723 -140.63068 34361 ft 500 kts 293°
2026-05-05 23:19 49.26025 -140.72367 34360 ft 500 kts 293°
2026-05-05 23:20 49.29340 -140.81732 34357 ft 500 kts 292°
2026-05-05 23:20 49.32650 -140.91120 34357 ft 500 kts 292°
2026-05-05 23:21 49.35948 -141.00511 34357 ft 500 kts 292°
2026-05-05 23:21 49.39243 -141.09924 34357 ft 500 kts 292°
2026-05-05 23:22 49.42502 -141.19272 34357 ft 500 kts 292°
2026-05-05 23:22 49.45778 -141.28699 34357 ft 500 kts 292°
2026-05-05 23:23 49.49041 -141.38126 34370 ft 500 kts 292°
2026-05-05 23:23 49.52300 -141.47577 34356 ft 500 kts 292°
2026-05-05 23:24 49.55551 -141.57039 34355 ft 499 kts 292°
2026-05-05 23:24 49.58244 -141.64903 34354 ft 499 kts 292°
2026-05-05 23:25 49.61481 -141.74386 34349 ft 499 kts 292°
2026-05-05 23:25 49.64707 -141.83878 34346 ft 499 kts 292°
2026-05-05 23:26 49.67923 -141.93370 34346 ft 499 kts 292°
2026-05-05 23:26 49.71131 -142.02875 34350 ft 499 kts 292°
2026-05-05 23:27 49.74330 -142.12391 34370 ft 498 kts 292°
2026-05-05 23:27 49.77495 -142.21840 34343 ft 498 kts 292°
2026-05-05 23:28 49.80677 -142.31375 34343 ft 498 kts 292°
2026-05-05 23:28 49.83851 -142.40923 34344 ft 498 kts 292°
2026-05-05 23:29 49.86994 -142.50412 34358 ft 498 kts 292°
2026-05-05 23:29 49.90147 -142.59966 34335 ft 497 kts 292°
2026-05-05 23:30 49.93287 -142.69521 34336 ft 497 kts 292°
2026-05-05 23:30 49.96419 -142.79085 34337 ft 497 kts 291°
2026-05-05 23:31 49.99544 -142.88666 34356 ft 497 kts 291°
2026-05-05 23:31 50.02657 -142.98247 34330 ft 496 kts 291°
2026-05-05 23:32 50.05762 -143.07837 34330 ft 496 kts 291°
2026-05-05 23:32 50.08854 -143.17428 34330 ft 496 kts 291°
2026-05-05 23:33 50.11943 -143.27042 34351 ft 496 kts 291°
2026-05-05 23:33 50.14993 -143.36573 34322 ft 494 kts 291°
2026-05-05 23:34 50.18055 -143.46179 34325 ft 494 kts 291°
2026-05-05 23:34 50.21111 -143.55804 34322 ft 494 kts 291°
2026-05-05 23:35 50.24156 -143.65431 34332 ft 494 kts 291°
2026-05-05 23:35 50.27190 -143.75059 34307 ft 493 kts 290°
2026-05-05 23:36 50.30211 -143.84687 34327 ft 493 kts 290°
2026-05-05 23:36 50.33226 -143.94330 34327 ft 493 kts 290°
2026-05-05 23:37 50.36214 -144.03926 34330 ft 493 kts 290°
2026-05-05 23:37 50.39206 -144.13571 34313 ft 492 kts 290°
2026-05-05 23:38 50.42190 -144.23231 34312 ft 492 kts 290°
2026-05-05 23:38 50.45164 -144.32894 34309 ft 492 kts 290°
2026-05-05 23:39 50.48128 -144.42563 34330 ft 491 kts 290°
2026-05-05 23:39 50.51080 -144.52233 34303 ft 491 kts 290°
2026-05-05 23:40 50.54024 -144.61914 34304 ft 491 kts 289°
2026-05-05 23:40 50.56960 -144.71606 34303 ft 490 kts 289°
2026-05-05 23:41 50.59887 -144.81308 34297 ft 490 kts 289°
2026-05-05 23:41 50.62805 -144.91019 34298 ft 490 kts 289°
2026-05-05 23:42 50.65690 -145.00659 34295 ft 490 kts 289°
2026-05-05 23:42 50.68592 -145.10394 34295 ft 490 kts 289°
2026-05-05 23:43 50.71483 -145.20129 34308 ft 490 kts 289°
2026-05-05 23:43 50.74363 -145.29865 34298 ft 489 kts 289°
2026-05-05 23:44 50.77233 -145.39610 34295 ft 488 kts 289°
2026-05-05 23:44 50.80089 -145.49351 34293 ft 488 kts 289°
2026-05-05 23:45 50.82936 -145.59097 34293 ft 488 kts 288°
2026-05-05 23:45 50.85775 -145.68847 34293 ft 487 kts 288°
2026-05-05 23:46 50.88583 -145.78539 34290 ft 487 kts 288°
2026-05-05 23:46 50.91400 -145.88304 34287 ft 486 kts 288°
2026-05-05 23:47 50.94206 -145.98071 34284 ft 486 kts 288°
2026-05-05 23:47 50.97008 -146.07859 34287 ft 485 kts 287°
2026-05-05 23:48 50.99770 -146.17547 34285 ft 484 kts 287°
2026-05-05 23:48 51.02545 -146.27325 34277 ft 484 kts 287°
2026-05-05 23:49 51.05290 -146.37039 34278 ft 484 kts 287°
2026-05-05 23:49 51.08041 -146.46809 34279 ft 483 kts 287°
2026-05-05 23:50 51.10776 -146.56557 34272 ft 481 kts 287°
2026-05-05 23:50 51.13488 -146.66271 34271 ft 480 kts 287°
2026-05-05 23:51 51.16199 -146.76014 34266 ft 481 kts 287°
2026-05-05 23:51 51.18903 -146.85779 34288 ft 481 kts 287°
2026-05-05 23:52 51.21588 -146.95521 34263 ft 479 kts 287°
2026-05-05 23:52 51.24245 -147.05202 34258 ft 478 kts 287°
2026-05-05 23:53 51.26911 -147.14956 34263 ft 478 kts 287°
2026-05-05 23:53 51.29565 -147.24704 34256 ft 478 kts 287°
2026-05-05 23:54 51.32204 -147.34436 34235 ft 476 kts 287°
2026-05-05 23:54 51.34810 -147.44084 34253 ft 475 kts 287°
2026-05-05 23:55 51.37420 -147.53795 34254 ft 475 kts 287°
2026-05-05 23:55 51.40026 -147.63529 34251 ft 475 kts 287°
2026-05-05 23:56 51.42622 -147.73265 34240 ft 474 kts 287°
2026-05-05 23:56 51.45199 -147.82966 34241 ft 473 kts 287°
2026-05-05 23:57 51.47769 -147.92688 34238 ft 473 kts 287°
2026-05-05 23:57 51.50308 -148.02337 34233 ft 473 kts 287°
2026-05-05 23:58 51.52866 -148.12098 34254 ft 473 kts 287°
2026-05-05 23:58 51.55404 -148.21825 34232 ft 472 kts 287°
2026-05-05 23:59 51.57938 -148.31573 34234 ft 472 kts 287°
2026-05-05 23:59 51.60462 -148.41323 34229 ft 472 kts 287°
2026-05-06 00:00 51.62962 -148.51020 34230 ft 472 kts 286°
2026-05-06 00:00 51.65467 -148.60786 34225 ft 472 kts 287°
2026-05-06 00:01 51.67959 -148.70551 34219 ft 471 kts 287°
2026-05-06 00:01 51.70448 -148.80337 34219 ft 471 kts 287°
2026-05-06 00:02 51.72927 -148.90126 34216 ft 471 kts 286°
2026-05-06 00:02 51.75398 -148.99925 34216 ft 471 kts 286°
2026-05-06 00:03 51.77857 -149.09725 34211 ft 471 kts 286°
2026-05-06 00:03 51.80313 -149.19552 34211 ft 471 kts 286°
2026-05-06 00:04 51.82747 -149.29334 34211 ft 471 kts 286°
2026-05-06 00:04 51.85185 -149.39178 34229 ft 471 kts 287°
2026-05-06 00:05 51.88823 -149.53944 34208 ft 470 kts 286°
2026-05-06 00:06 51.91220 -149.63727 34203 ft 470 kts 286°
2026-05-06 00:06 51.93626 -149.73592 34197 ft 470 kts 286°
2026-05-06 00:07 51.96020 -149.83457 34222 ft 470 kts 286°
2026-05-06 00:07 51.98402 -149.93311 34195 ft 470 kts 286°
2026-05-06 00:08 52.00453 -150.03310 34196 ft 464 kts 279°
2026-05-06 00:08 52.01991 -150.13500 34189 ft 464 kts 278°
2026-05-06 00:09 52.03445 -150.23699 34192 ft 463 kts 278°
2026-05-06 00:09 52.04885 -150.33908 34194 ft 463 kts 278°
2026-05-06 00:10 52.06316 -150.44050 34187 ft 463 kts 278°
2026-05-06 00:10 52.07750 -150.54241 34183 ft 463 kts 278°
2026-05-06 00:11 52.09175 -150.64442 34183 ft 463 kts 278°
2026-05-06 00:11 52.10353 -150.72922 34178 ft 463 kts 278°
2026-05-06 00:12 52.11763 -150.83144 34181 ft 462 kts 278°
2026-05-06 00:12 52.13161 -150.93343 34172 ft 461 kts 278°
2026-05-06 00:13 52.14547 -151.03534 34174 ft 461 kts 278°
2026-05-06 00:13 52.15926 -151.13741 34184 ft 461 kts 278°
2026-05-06 00:14 52.17296 -151.23951 34168 ft 461 kts 278°
2026-05-06 00:14 52.18649 -151.34107 34166 ft 460 kts 278°
2026-05-06 00:15 52.19999 -151.44310 34169 ft 460 kts 278°
2026-05-06 00:15 52.21337 -151.54498 34167 ft 460 kts 278°
2026-05-06 00:16 52.22669 -151.64716 34164 ft 460 kts 278°
2026-05-06 00:16 52.23989 -151.74914 34187 ft 460 kts 278°
2026-05-06 00:17 52.25300 -151.85111 34158 ft 459 kts 278°
2026-05-06 00:17 52.26600 -151.95303 34157 ft 458 kts 278°
2026-05-06 00:18 52.27891 -152.05497 34154 ft 458 kts 278°
2026-05-06 00:18 52.29165 -152.15631 34157 ft 458 kts 277°
2026-05-06 00:19 52.30439 -152.25840 34164 ft 458 kts 277°
2026-05-06 00:19 52.31703 -152.36041 34153 ft 457 kts 277°
2026-05-06 00:20 52.32958 -152.46256 34153 ft 457 kts 277°
2026-05-06 00:20 52.34203 -152.56456 34149 ft 457 kts 277°
2026-05-06 00:21 52.35436 -152.66646 34146 ft 457 kts 277°
2026-05-06 00:21 52.36656 -152.76800 34150 ft 457 kts 277°
2026-05-06 00:22 52.37874 -152.87015 34135 ft 457 kts 277°
2026-05-06 00:22 52.39082 -152.97228 34152 ft 457 kts 277°
2026-05-06 00:23 52.40280 -153.07440 34143 ft 457 kts 277°
2026-05-06 00:23 52.41471 -153.17668 34143 ft 457 kts 277°
2026-05-06 00:24 52.42653 -153.27905 34136 ft 457 kts 277°
2026-05-06 00:24 52.43828 -153.38160 34137 ft 458 kts 277°
2026-05-06 00:25 52.44995 -153.48425 34135 ft 458 kts 277°
2026-05-06 00:25 52.46145 -153.58622 34135 ft 458 kts 277°
2026-05-06 00:26 52.47292 -153.68883 34134 ft 458 kts 277°
2026-05-06 00:26 52.48432 -153.79165 34135 ft 458 kts 276°
2026-05-06 00:27 52.49562 -153.89445 34125 ft 457 kts 276°
2026-05-06 00:27 52.50682 -153.99710 34125 ft 457 kts 276°
2026-05-06 00:28 52.51788 -154.09941 34129 ft 457 kts 276°
2026-05-06 00:28 52.52891 -154.20232 34128 ft 457 kts 276°
2026-05-06 00:29 52.53985 -154.30528 34127 ft 458 kts 276°
2026-05-06 00:29 52.55071 -154.40833 34131 ft 458 kts 276°
2026-05-06 00:30 52.56148 -154.51150 34128 ft 458 kts 276°
2026-05-06 00:30 52.57210 -154.61401 34131 ft 458 kts 276°
2026-05-06 00:31 52.58269 -154.71721 34124 ft 458 kts 276°
2026-05-06 00:31 52.59319 -154.82050 34120 ft 458 kts 276°
2026-05-06 00:32 52.60360 -154.92386 34127 ft 458 kts 276°
2026-05-06 00:32 52.61396 -155.02756 34124 ft 458 kts 276°
2026-05-06 00:33 52.62413 -155.13032 34116 ft 458 kts 276°
2026-05-06 00:33 52.63426 -155.23374 34127 ft 458 kts 276°
2026-05-06 00:34 52.64433 -155.33752 34124 ft 459 kts 276°
2026-05-06 00:34 52.65434 -155.44152 34119 ft 459 kts 276°
2026-05-06 00:35 52.66416 -155.54458 34119 ft 459 kts 276°
2026-05-06 00:35 52.67396 -155.64842 34113 ft 459 kts 276°
2026-05-06 00:36 52.68368 -155.75244 34121 ft 459 kts 276°
2026-05-06 00:36 52.69329 -155.85643 34113 ft 459 kts 276°
2026-05-06 00:37 52.70284 -155.96056 34116 ft 459 kts 276°
2026-05-06 00:37 52.71230 -156.06484 34113 ft 459 kts 276°
2026-05-06 00:38 52.72166 -156.16907 34116 ft 459 kts 276°
2026-05-06 00:38 52.73085 -156.27263 34118 ft 460 kts 276°
2026-05-06 00:39 52.74006 -156.37738 34114 ft 462 kts 276°
2026-05-06 00:39 52.74919 -156.48220 34111 ft 462 kts 276°
2026-05-06 00:40 52.75824 -156.58729 34113 ft 462 kts 276°
2026-05-06 00:40 52.76719 -156.69232 34113 ft 462 kts 276°
2026-05-06 00:41 52.77605 -156.79751 34111 ft 463 kts 276°
2026-05-06 00:41 52.78477 -156.90218 34110 ft 464 kts 276°
2026-05-06 00:42 52.79350 -157.00801 34117 ft 464 kts 276°
2026-05-06 00:42 52.80212 -157.11368 34113 ft 464 kts 276°
2026-05-06 00:43 52.81065 -157.21947 34113 ft 464 kts 276°
2026-05-06 00:43 52.81902 -157.32454 34114 ft 464 kts 276°
2026-05-06 00:44 52.82736 -157.43048 34112 ft 465 kts 276°
2026-05-06 00:44 52.83562 -157.53659 34113 ft 465 kts 276°
2026-05-06 00:45 52.84379 -157.64273 34113 ft 465 kts 275°
2026-05-06 00:45 52.85187 -157.74907 34110 ft 465 kts 275°
2026-05-06 00:46 52.85984 -157.85523 34113 ft 465 kts 275°
2026-05-06 00:46 52.86773 -157.96158 34116 ft 465 kts 275°
2026-05-06 00:47 52.87552 -158.06793 34116 ft 465 kts 275°
2026-05-06 00:47 52.88316 -158.17355 34113 ft 465 kts 275°
2026-05-06 00:48 52.89076 -158.27997 34126 ft 465 kts 275°
2026-05-06 00:48 52.89825 -158.38621 34112 ft 465 kts 275°
2026-05-06 00:49 52.90565 -158.49258 34114 ft 465 kts 275°
2026-05-06 00:49 52.91296 -158.59898 34113 ft 464 kts 275°
2026-05-06 00:50 52.92017 -158.70547 34117 ft 464 kts 275°
2026-05-06 00:50 52.92727 -158.81173 34114 ft 464 kts 275°
2026-05-06 00:51 52.93425 -158.91763 34122 ft 464 kts 275°
2026-05-06 00:51 52.94119 -159.02430 34124 ft 464 kts 275°
2026-05-06 00:52 52.94801 -159.13072 34118 ft 464 kts 275°
2026-05-06 00:52 52.95474 -159.23732 34121 ft 464 kts 274°
2026-05-06 00:53 52.96137 -159.34381 34124 ft 465 kts 275°
2026-05-06 00:53 52.96792 -159.45066 34121 ft 465 kts 275°
2026-05-06 00:54 52.97433 -159.55670 34119 ft 465 kts 274°
2026-05-06 00:54 52.98070 -159.66360 34127 ft 466 kts 274°
2026-05-06 00:55 52.98698 -159.77085 34127 ft 466 kts 274°
2026-05-06 00:55 52.99317 -159.87823 34127 ft 467 kts 274°
2026-05-06 00:56 52.99854 -159.98565 34130 ft 467 kts 270°
2026-05-06 00:56 52.99503 -160.09245 34129 ft 466 kts 265°
2026-05-06 00:57 52.98900 -160.19984 34125 ft 467 kts 264°
2026-05-06 00:57 52.98254 -160.30689 34132 ft 467 kts 264°
2026-05-06 00:58 52.97605 -160.41419 34133 ft 468 kts 264°
2026-05-06 00:58 52.97065 -160.50378 34132 ft 470 kts 264°
2026-05-06 00:59 52.96407 -160.61187 34132 ft 470 kts 264°
2026-05-06 00:59 52.95740 -160.71973 34135 ft 470 kts 264°
2026-05-06 01:00 52.94951 -160.84523 34140 ft 470 kts 264°
2026-05-06 01:00 52.94374 -160.93562 34139 ft 471 kts 264°
2026-05-06 01:01 52.93678 -161.04328 34140 ft 474 kts 264°
2026-05-06 01:01 52.92964 -161.15208 34140 ft 475 kts 264°
2026-05-06 01:02 52.92238 -161.26126 34140 ft 475 kts 264°
2026-05-06 01:02 52.91503 -161.37021 34137 ft 475 kts 264°
2026-05-06 01:03 52.90758 -161.47908 34135 ft 475 kts 264°
2026-05-06 01:03 52.90006 -161.58747 34144 ft 478 kts 264°
2026-05-06 01:04 52.89236 -161.69713 34145 ft 480 kts 264°
2026-05-06 01:04 52.88454 -161.80682 34143 ft 480 kts 264°
2026-05-06 01:05 52.87662 -161.91653 34143 ft 480 kts 264°
2026-05-06 01:05 52.86861 -162.02613 34145 ft 480 kts 264°
2026-05-06 01:06 52.85970 -162.14634 34142 ft 483 kts 264°
2026-05-06 01:06 52.85139 -162.25695 34143 ft 484 kts 264°
2026-05-06 01:07 52.84299 -162.36738 34143 ft 484 kts 264°
2026-05-06 01:07 52.83448 -162.47778 34143 ft 484 kts 264°
2026-05-06 01:08 52.82587 -162.58825 34143 ft 484 kts 263°
2026-05-06 01:08 52.81720 -162.69802 34143 ft 486 kts 264°
2026-05-06 01:09 52.80834 -162.80890 34143 ft 487 kts 264°
2026-05-06 01:09 52.79937 -162.91977 34140 ft 487 kts 264°
2026-05-06 01:10 52.79029 -163.03082 34139 ft 487 kts 263°
2026-05-06 01:10 52.78111 -163.14165 34143 ft 487 kts 263°
2026-05-06 01:11 52.77181 -163.25261 34143 ft 488 kts 264°
2026-05-06 01:11 52.76239 -163.36378 34143 ft 489 kts 264°
2026-05-06 01:12 52.75286 -163.47498 34142 ft 489 kts 263°
2026-05-06 01:12 52.74329 -163.58536 34143 ft 489 kts 263°
2026-05-06 01:13 52.73355 -163.69644 34144 ft 489 kts 263°
2026-05-06 01:13 52.72370 -163.80753 34149 ft 489 kts 264°
2026-05-06 01:14 52.70873 -163.97426 34151 ft 489 kts 263°
2026-05-06 01:14 52.69868 -164.08459 34146 ft 489 kts 263°
2026-05-06 01:15 52.68846 -164.19559 34148 ft 489 kts 263°
2026-05-06 01:15 52.67814 -164.30664 34151 ft 490 kts 263°
2026-05-06 01:16 52.66769 -164.41777 34153 ft 491 kts 263°
2026-05-06 01:16 52.65713 -164.52895 34155 ft 491 kts 263°
2026-05-06 01:17 52.64656 -164.63912 34151 ft 491 kts 263°
2026-05-06 01:17 52.63579 -164.75019 34152 ft 491 kts 263°
2026-05-06 01:18 52.62492 -164.86115 34148 ft 491 kts 263°
2026-05-06 01:18 52.61397 -164.97193 34160 ft 490 kts 263°
2026-05-06 01:19 52.60476 -165.06420 34152 ft 490 kts 263°
2026-05-06 01:19 52.59362 -165.17482 34160 ft 490 kts 263°
2026-05-06 01:20 52.58053 -165.30349 34155 ft 490 kts 263°
2026-05-06 01:20 52.57100 -165.39622 34154 ft 491 kts 263°
2026-05-06 01:21 52.55956 -165.50662 34168 ft 490 kts 263°
2026-05-06 01:21 52.54808 -165.61631 34167 ft 490 kts 263°
2026-05-06 01:22 52.53642 -165.72671 34167 ft 490 kts 263°
2026-05-06 01:22 52.52466 -165.83695 34167 ft 490 kts 263°
2026-05-06 01:23 52.51282 -165.94701 34180 ft 490 kts 263°
2026-05-06 01:23 52.50086 -166.05709 34172 ft 489 kts 263°
2026-05-06 01:24 52.48892 -166.16612 34180 ft 489 kts 263°
2026-05-06 01:24 52.47676 -166.27616 34163 ft 489 kts 263°
2026-05-06 01:25 52.46452 -166.38597 34180 ft 489 kts 263°
2026-05-06 01:25 52.45224 -166.49497 34171 ft 488 kts 263°
2026-05-06 01:26 52.43984 -166.60413 34181 ft 486 kts 263°
2026-05-06 01:26 52.42740 -166.71291 34181 ft 486 kts 263°
2026-05-06 01:27 52.41485 -166.82166 34182 ft 486 kts 263°
2026-05-06 01:27 52.40219 -166.93041 34180 ft 486 kts 263°
2026-05-06 01:28 52.38943 -167.03896 34174 ft 485 kts 264°
2026-05-06 01:28 52.37661 -167.14720 34185 ft 483 kts 264°
2026-05-06 01:29 52.36379 -167.25453 34186 ft 483 kts 264°
2026-05-06 01:29 52.35082 -167.36239 34183 ft 483 kts 263°
2026-05-06 01:30 52.33773 -167.47020 34180 ft 483 kts 264°
2026-05-06 01:30 52.32455 -167.57778 34180 ft 480 kts 265°
2026-05-06 01:31 52.31139 -167.68446 34184 ft 477 kts 265°
2026-05-06 01:31 52.29820 -167.79070 34184 ft 477 kts 265°
2026-05-06 01:32 52.28501 -167.89604 34187 ft 477 kts 265°
2026-05-06 01:32 52.27163 -168.00209 34187 ft 477 kts 264°
2026-05-06 01:33 52.25814 -168.10819 34177 ft 476 kts 265°
2026-05-06 01:33 52.24462 -168.21348 34190 ft 471 kts 265°
2026-05-06 01:34 52.23109 -168.31825 34183 ft 471 kts 265°
2026-05-06 01:34 52.21758 -168.42221 34190 ft 471 kts 265°
2026-05-06 01:35 52.20389 -168.52674 34168 ft 471 kts 266°
2026-05-06 01:35 52.19009 -168.63112 34177 ft 468 kts 266°
2026-05-06 01:36 52.17636 -168.73397 34185 ft 461 kts 266°
2026-05-06 01:36 52.16272 -168.83593 34185 ft 460 kts 266°
2026-05-06 01:37 52.14902 -168.93778 34182 ft 461 kts 266°
2026-05-06 01:37 52.13529 -169.03907 34185 ft 461 kts 266°
2026-05-06 01:38 52.12135 -169.14098 34150 ft 461 kts 266°
2026-05-06 01:38 52.10739 -169.24179 34186 ft 451 kts 266°
2026-05-06 01:39 52.09362 -169.34099 34186 ft 448 kts 266°
2026-05-06 01:39 52.07996 -169.43928 34180 ft 448 kts 266°
2026-05-06 01:40 52.06610 -169.53820 34182 ft 448 kts 266°
2026-05-06 01:40 52.05214 -169.63670 34174 ft 444 kts 267°
2026-05-06 01:41 52.03828 -169.73370 34174 ft 439 kts 268°
2026-05-06 01:41 52.02450 -169.83019 34181 ft 438 kts 268°
2026-05-06 01:42 52.01074 -169.92598 34183 ft 439 kts 267°
2026-05-06 01:42 51.99678 -170.02238 34165 ft 439 kts 267°
2026-05-06 01:43 51.98234 -170.11874 34175 ft 439 kts 267°
2026-05-06 01:43 51.96771 -170.21432 34165 ft 436 kts 267°
2026-05-06 01:44 51.95313 -170.30891 34172 ft 429 kts 267°
2026-05-06 01:44 51.93874 -170.40269 34170 ft 429 kts 267°
2026-05-06 01:45 51.92432 -170.49650 34170 ft 429 kts 267°
2026-05-06 01:45 51.90980 -170.59025 34173 ft 429 kts 267°
2026-05-06 01:46 51.89517 -170.68376 34167 ft 425 kts 267°
2026-05-06 01:46 51.88065 -170.77614 34163 ft 423 kts 266°
2026-05-06 01:47 51.86619 -170.86785 34173 ft 423 kts 266°
2026-05-06 01:47 51.85156 -170.96014 34158 ft 423 kts 266°
2026-05-06 01:48 51.83682 -171.05248 34160 ft 424 kts 266°
2026-05-06 01:48 51.82204 -171.14456 34176 ft 424 kts 265°
2026-05-06 01:49 51.80711 -171.23701 34140 ft 424 kts 265°
2026-05-06 01:49 51.79225 -171.32860 34163 ft 424 kts 264°
2026-05-06 01:50 51.77719 -171.42086 34162 ft 424 kts 264°
2026-05-06 01:50 51.76207 -171.51300 34162 ft 424 kts 264°
2026-05-06 01:51 51.74687 -171.60511 34162 ft 425 kts 264°
2026-05-06 01:51 51.73162 -171.69695 34159 ft 422 kts 264°
2026-05-06 01:52 51.71637 -171.78837 34159 ft 421 kts 263°
2026-05-06 01:52 51.70118 -171.87902 34159 ft 420 kts 263°
2026-05-06 01:53 51.68587 -171.96993 34159 ft 420 kts 263°
2026-05-06 01:53 51.67048 -172.06079 34159 ft 421 kts 263°
2026-05-06 01:54 51.65498 -172.15182 34157 ft 421 kts 263°
2026-05-06 01:54 51.63942 -172.24270 34157 ft 421 kts 263°
2026-05-06 01:55 51.62380 -172.33357 34151 ft 422 kts 262°
2026-05-06 01:55 51.60806 -172.42452 34155 ft 422 kts 262°
2026-05-06 01:56 51.59222 -172.51556 34153 ft 422 kts 262°
2026-05-06 01:56 51.57641 -172.60601 34146 ft 422 kts 262°
2026-05-06 01:57 51.56046 -172.69681 34148 ft 422 kts 262°
2026-05-06 01:57 51.54444 -172.78752 34152 ft 421 kts 261°
2026-05-06 01:58 51.52839 -172.87778 34151 ft 418 kts 261°
2026-05-06 01:58 51.51241 -172.96738 34152 ft 417 kts 261°
2026-05-06 01:59 51.49652 -173.05621 34149 ft 417 kts 261°
2026-05-06 01:59 51.48042 -173.14561 34149 ft 417 kts 261°
2026-05-06 02:00 51.46425 -173.23504 34150 ft 417 kts 260°
2026-05-06 02:00 51.44802 -173.32418 34147 ft 416 kts 259°
2026-05-06 02:01 51.43175 -173.41309 34140 ft 415 kts 259°
2026-05-06 02:01 51.41546 -173.50184 34140 ft 415 kts 259°
2026-05-06 02:02 51.39910 -173.59052 34140 ft 415 kts 259°
2026-05-06 02:02 51.38267 -173.67917 34138 ft 415 kts 259°
2026-05-06 02:03 51.36614 -173.76785 34138 ft 415 kts 259°
2026-05-06 02:03 51.34968 -173.85578 34135 ft 415 kts 258°
2026-05-06 02:04 51.33306 -173.94415 34129 ft 415 kts 258°
2026-05-06 02:04 51.31637 -174.03246 34129 ft 415 kts 258°
2026-05-06 02:05 51.29960 -174.12076 34129 ft 415 kts 258°
2026-05-06 02:05 51.28562 -174.19410 34129 ft 415 kts 258°
2026-05-06 02:06 51.26876 -174.28215 34111 ft 415 kts 257°
2026-05-06 02:06 51.25180 -174.37027 34126 ft 415 kts 257°
2026-05-06 02:07 51.23477 -174.45842 34129 ft 416 kts 257°
2026-05-06 02:07 51.21765 -174.54656 34119 ft 416 kts 257°
2026-05-06 02:08 51.20058 -174.63405 34124 ft 415 kts 257°
2026-05-06 02:08 51.18338 -174.72183 34124 ft 415 kts 257°
2026-05-06 02:09 51.16610 -174.80962 34124 ft 415 kts 256°
2026-05-06 02:09 51.14872 -174.89748 34121 ft 415 kts 256°
2026-05-06 02:10 51.13131 -174.98513 34119 ft 415 kts 256°
2026-05-06 02:10 51.11386 -175.07260 34119 ft 415 kts 256°
2026-05-06 02:11 51.09632 -175.16009 34119 ft 415 kts 256°
2026-05-06 02:11 51.07870 -175.24761 34124 ft 415 kts 256°
2026-05-06 02:12 51.06120 -175.33418 34107 ft 412 kts 255°
2026-05-06 02:12 51.04358 -175.42083 34108 ft 411 kts 255°
2026-05-06 02:13 51.02594 -175.50727 34105 ft 411 kts 255°
2026-05-06 02:13 51.00826 -175.59360 34105 ft 411 kts 255°
2026-05-06 02:14 50.99048 -175.67996 34102 ft 411 kts 255°
2026-05-06 02:14 50.97278 -175.76562 34100 ft 411 kts 254°
2026-05-06 02:15 50.95488 -175.85183 34097 ft 411 kts 254°
2026-05-06 02:15 50.93694 -175.93783 34094 ft 411 kts 254°
2026-05-06 02:16 50.91892 -176.02393 34095 ft 411 kts 254°
2026-05-06 02:16 50.90096 -176.10933 34083 ft 411 kts 254°
2026-05-06 02:17 50.88284 -176.19515 34084 ft 411 kts 254°
2026-05-06 02:17 50.86464 -176.28096 34078 ft 410 kts 253°
2026-05-06 02:18 50.84641 -176.36654 34078 ft 410 kts 253°
2026-05-06 02:18 50.82824 -176.45147 34075 ft 410 kts 253°
2026-05-06 02:19 50.80991 -176.53685 34083 ft 410 kts 252°
2026-05-06 02:19 50.79148 -176.62227 34083 ft 410 kts 252°
2026-05-06 02:20 50.76373 -176.75029 34069 ft 410 kts 251°
2026-05-06 02:21 50.74518 -176.83539 34067 ft 409 kts 251°
2026-05-06 02:21 50.72658 -176.92038 34061 ft 409 kts 251°
2026-05-06 02:22 50.70793 -177.00528 34062 ft 409 kts 251°
2026-05-06 02:22 50.68934 -177.08954 34059 ft 409 kts 251°
2026-05-06 02:23 50.67057 -177.17427 34055 ft 409 kts 251°
2026-05-06 02:23 50.65177 -177.25893 34051 ft 408 kts 250°
2026-05-06 02:24 50.63290 -177.34341 34048 ft 407 kts 250°
2026-05-06 02:24 50.61400 -177.42761 34034 ft 408 kts 250°
2026-05-06 02:25 50.59509 -177.51153 34045 ft 410 kts 250°
2026-05-06 02:25 50.57598 -177.59608 34034 ft 410 kts 250°
2026-05-06 02:26 50.55681 -177.68061 34050 ft 410 kts 250°
2026-05-06 02:26 50.53750 -177.76529 34034 ft 411 kts 249°
2026-05-06 02:27 50.51816 -177.84988 34028 ft 411 kts 249°
2026-05-06 02:27 50.49871 -177.93457 34029 ft 412 kts 249°
2026-05-06 02:28 50.47936 -178.01850 34023 ft 412 kts 249°
2026-05-06 02:28 50.45978 -178.10308 34023 ft 412 kts 249°
2026-05-06 02:29 50.44015 -178.18749 34025 ft 411 kts 248°
2026-05-06 02:29 50.42056 -178.27144 34017 ft 409 kts 248°
2026-05-06 02:30 50.40093 -178.35523 34008 ft 409 kts 248°
2026-05-06 02:30 50.38140 -178.43831 34012 ft 408 kts 248°
2026-05-06 02:31 50.36171 -178.52176 34010 ft 408 kts 248°
2026-05-06 02:31 50.34196 -178.60508 34004 ft 408 kts 248°
2026-05-06 02:32 50.32213 -178.68838 34008 ft 408 kts 246°
2026-05-06 02:32 50.30226 -178.77160 34000 ft 408 kts 246°
2026-05-06 02:33 50.28245 -178.85427 33994 ft 408 kts 246°
2026-05-06 02:33 50.27570 -178.88238 33995 ft 408 kts 246°
2026-05-06 02:34 50.24238 -179.02050 33993 ft 408 kts 246°
2026-05-06 02:34 50.22240 -179.10296 33986 ft 408 kts 245°
2026-05-06 02:35 50.20230 -179.18552 33979 ft 406 kts 245°
2026-05-06 02:35 50.18217 -179.26793 33977 ft 406 kts 246°
2026-05-06 02:36 50.16202 -179.35013 33977 ft 405 kts 245°
2026-05-06 02:36 50.14181 -179.43223 33975 ft 405 kts 245°
2026-05-06 02:37 50.12156 -179.51421 33972 ft 405 kts 245°
2026-05-06 02:37 50.10125 -179.59613 33973 ft 405 kts 245°
2026-05-06 02:38 50.08088 -179.67800 33967 ft 405 kts 245°
2026-05-06 02:38 50.06060 -179.75920 33955 ft 405 kts 245°
2026-05-06 02:39 50.04009 -179.84102 33952 ft 405 kts 245°
2026-05-06 02:39 50.01956 -179.92263 33967 ft 405 kts 245°
2026-05-06 02:40 49.99631 179.99796 33980 ft 402 kts 237°
2026-05-06 02:40 49.96435 179.92705 33921 ft 399 kts 232°
2026-05-06 02:41 49.93053 179.85897 33945 ft 398 kts 231°
2026-05-06 02:41 49.89664 179.79162 33932 ft 398 kts 231°
2026-05-06 02:42 49.86268 179.72394 33927 ft 398 kts 231°
2026-05-06 02:42 49.82871 179.65615 33925 ft 398 kts 231°
2026-05-06 02:43 49.79479 179.58854 33920 ft 398 kts 231°
2026-05-06 02:43 49.76081 179.52095 33931 ft 397 kts 230°
2026-05-06 02:44 49.72710 179.45414 33906 ft 396 kts 230°
2026-05-06 02:44 49.69320 179.38716 33903 ft 395 kts 230°
2026-05-06 02:45 49.65931 179.32033 33902 ft 395 kts 230°
2026-05-06 02:45 49.62537 179.25356 33895 ft 395 kts 230°
2026-05-06 02:46 49.59137 179.18684 33889 ft 395 kts 230°
2026-05-06 02:46 49.55737 179.12031 33889 ft 395 kts 230°
2026-05-06 02:47 49.52330 179.05373 33890 ft 394 kts 229°
2026-05-06 02:47 49.48957 178.98809 33884 ft 393 kts 229°
2026-05-06 02:48 49.45563 178.92217 33874 ft 393 kts 229°
2026-05-06 02:48 49.42166 178.85634 33872 ft 393 kts 229°
2026-05-06 02:49 49.38765 178.79061 33874 ft 393 kts 229°
2026-05-06 02:49 49.35362 178.72499 33862 ft 393 kts 229°
2026-05-06 02:50 49.31947 178.65930 33914 ft 393 kts 229°
2026-05-06 02:50 49.28518 178.59345 33861 ft 397 kts 229°
2026-05-06 02:51 49.25085 178.52779 33855 ft 397 kts 229°
2026-05-06 02:51 49.21621 178.46167 33849 ft 397 kts 229°
2026-05-06 02:52 49.18153 178.39564 33841 ft 397 kts 229°
2026-05-06 02:52 49.14686 178.32978 33841 ft 397 kts 229°
2026-05-06 02:53 49.11239 178.26447 33842 ft 397 kts 228°
2026-05-06 02:53 49.07759 178.19868 33843 ft 401 kts 228°
2026-05-06 02:54 49.04243 178.13241 33834 ft 401 kts 228°
2026-05-06 02:54 49.00734 178.06639 33830 ft 401 kts 228°
2026-05-06 02:55 48.97219 178.00044 33818 ft 401 kts 228°
2026-05-06 02:55 48.94294 177.94567 33815 ft 401 kts 228°
2026-05-06 02:56 48.90772 177.87989 33811 ft 401 kts 228°
2026-05-06 02:56 48.86679 177.80366 33866 ft 402 kts 228°
2026-05-06 02:57 48.83706 177.74844 33793 ft 408 kts 228°
2026-05-06 02:57 48.80115 177.68186 33790 ft 407 kts 228°
2026-05-06 02:58 48.76526 177.61544 33790 ft 407 kts 228°
2026-05-06 02:58 48.72934 177.54917 33779 ft 407 kts 228°
2026-05-06 02:59 48.69335 177.48294 33779 ft 407 kts 228°
2026-05-06 02:59 48.65732 177.41681 33777 ft 407 kts 228°
2026-05-06 03:00 48.62130 177.35087 33743 ft 413 kts 228°
2026-05-06 03:00 48.58444 177.28359 33765 ft 416 kts 228°
2026-05-06 03:01 48.54738 177.21606 33754 ft 415 kts 228°
2026-05-06 03:01 48.51069 177.14937 33752 ft 415 kts 228°
2026-05-06 03:02 48.47372 177.08234 33755 ft 415 kts 228°
2026-05-06 03:02 48.43667 177.01535 33738 ft 416 kts 228°
2026-05-06 03:03 48.39972 176.94870 33748 ft 419 kts 229°
2026-05-06 03:03 48.36195 176.88076 33726 ft 423 kts 229°
2026-05-06 03:04 48.32418 176.81298 33730 ft 422 kts 229°
2026-05-06 03:04 48.28640 176.74535 33733 ft 422 kts 229°
2026-05-06 03:05 48.24860 176.67786 33718 ft 422 kts 229°
2026-05-06 03:05 48.21070 176.61035 33727 ft 423 kts 229°
2026-05-06 03:06 48.17269 176.54285 33712 ft 426 kts 229°
2026-05-06 03:06 48.13428 176.47483 33719 ft 427 kts 229°
2026-05-06 03:07 48.09588 176.40694 33719 ft 427 kts 229°
2026-05-06 03:07 48.05770 176.33960 33718 ft 427 kts 229°
2026-05-06 03:08 48.01918 176.27185 33722 ft 427 kts 229°
2026-05-06 03:08 47.98073 176.20441 33727 ft 428 kts 229°
2026-05-06 03:09 47.94208 176.13677 33712 ft 427 kts 229°
2026-05-06 03:09 47.90349 176.06942 33734 ft 426 kts 229°
2026-05-06 03:10 47.86518 176.00272 33738 ft 426 kts 229°
2026-05-06 03:10 47.82663 175.93576 33736 ft 426 kts 229°
2026-05-06 03:11 47.78798 175.86882 33737 ft 426 kts 229°
2026-05-06 03:11 47.74926 175.80190 33751 ft 426 kts 229°
2026-05-06 03:12 47.71044 175.73503 33743 ft 428 kts 229°
2026-05-06 03:12 47.67184 175.66863 33748 ft 427 kts 229°
2026-05-06 03:13 47.63299 175.60199 33761 ft 427 kts 229°
2026-05-06 03:13 47.59403 175.53533 33759 ft 427 kts 229°
2026-05-06 03:14 47.55529 175.46920 33768 ft 427 kts 229°
2026-05-06 03:14 47.51630 175.40282 33821 ft 427 kts 229°
2026-05-06 03:15 47.47715 175.33634 33769 ft 430 kts 229°
2026-05-06 03:15 47.43784 175.26974 33779 ft 430 kts 229°
2026-05-06 03:16 47.39841 175.20311 33783 ft 430 kts 229°
2026-05-06 03:16 47.35896 175.13660 33797 ft 430 kts 229°
2026-05-06 03:17 47.31946 175.07017 33795 ft 430 kts 229°
2026-05-06 03:17 47.27991 175.00385 33808 ft 432 kts 229°
2026-05-06 03:18 47.24023 174.93744 33806 ft 435 kts 230°
2026-05-06 03:18 47.20020 174.87062 33804 ft 435 kts 230°
2026-05-06 03:19 47.16010 174.80386 33814 ft 435 kts 230°
2026-05-06 03:19 47.11999 174.73724 33816 ft 435 kts 230°
2026-05-06 03:20 47.05960 174.63726 33839 ft 436 kts 230°
2026-05-06 03:20 47.01935 174.57085 33821 ft 440 kts 230°
2026-05-06 03:21 46.97864 174.50378 33826 ft 440 kts 230°
2026-05-06 03:21 46.93784 174.43675 33827 ft 441 kts 230°
2026-05-06 03:22 46.89701 174.36985 33831 ft 441 kts 230°
2026-05-06 03:22 46.85617 174.30309 33832 ft 441 kts 230°
2026-05-06 03:23 46.81522 174.23642 33837 ft 441 kts 230°
2026-05-06 03:23 46.77435 174.16993 33843 ft 439 kts 230°
2026-05-06 03:24 46.73371 174.10396 33847 ft 439 kts 230°
2026-05-06 03:24 46.69286 174.03782 33848 ft 439 kts 230°
2026-05-06 03:25 46.65202 173.97189 33862 ft 439 kts 230°
2026-05-06 03:25 46.61103 173.90589 33881 ft 439 kts 230°
2026-05-06 03:26 46.57016 173.84025 33861 ft 436 kts 231°
2026-05-06 03:26 46.52952 173.77510 33870 ft 435 kts 231°
2026-05-06 03:27 46.48874 173.70988 33876 ft 435 kts 230°
2026-05-06 03:27 46.44803 173.64493 33875 ft 435 kts 230°
2026-05-06 03:28 46.40748 173.58040 33879 ft 435 kts 230°
2026-05-06 03:28 46.36669 173.51566 33882 ft 434 kts 231°
2026-05-06 03:29 46.32604 173.45129 33887 ft 432 kts 231°
2026-05-06 03:29 46.28543 173.38712 33892 ft 432 kts 230°
2026-05-06 03:30 46.24479 173.32305 33895 ft 432 kts 230°
2026-05-06 03:30 46.20433 173.25942 33906 ft 432 kts 230°
2026-05-06 03:31 46.16354 173.19542 33883 ft 432 kts 230°
2026-05-06 03:31 46.12281 173.13169 33906 ft 431 kts 230°
2026-05-06 03:32 46.08205 173.06805 33914 ft 431 kts 230°
2026-05-06 03:32 46.04158 173.00499 33913 ft 431 kts 230°
2026-05-06 03:33 46.00076 172.94155 33919 ft 431 kts 230°
2026-05-06 03:33 45.95996 172.87828 33919 ft 432 kts 230°
2026-05-06 03:34 45.91895 172.81484 33929 ft 433 kts 230°
2026-05-06 03:34 45.87815 172.75187 33929 ft 433 kts 230°
2026-05-06 03:35 45.83704 172.68857 33938 ft 434 kts 230°
2026-05-06 03:35 45.79587 172.62532 33939 ft 434 kts 230°
2026-05-06 03:36 45.75462 172.56210 33950 ft 434 kts 230°
2026-05-06 03:36 45.71332 172.49895 33925 ft 434 kts 230°
2026-05-06 03:37 45.67205 172.43601 33958 ft 432 kts 230°
2026-05-06 03:37 45.63093 172.37342 33958 ft 432 kts 230°
2026-05-06 03:38 45.58996 172.31119 33962 ft 432 kts 230°
2026-05-06 03:38 45.54874 172.24874 33961 ft 432 kts 230°
2026-05-06 03:39 45.50743 172.18631 33959 ft 434 kts 231°
2026-05-06 03:39 45.46579 172.12350 33972 ft 437 kts 231°
2026-05-06 03:40 45.42397 172.06057 33978 ft 437 kts 231°
2026-05-06 03:40 45.38212 171.99774 33981 ft 437 kts 231°
2026-05-06 03:41 45.34018 171.93492 33974 ft 438 kts 230°
2026-05-06 03:41 45.29848 171.87261 33983 ft 438 kts 230°
2026-05-06 03:42 45.25637 171.80988 33988 ft 439 kts 231°
2026-05-06 03:42 45.21417 171.74708 33996 ft 440 kts 231°
2026-05-06 03:43 45.17899 171.69485 33993 ft 440 kts 231°
2026-05-06 03:43 45.13675 171.63228 34001 ft 440 kts 231°
2026-05-06 03:44 45.09438 171.56967 34004 ft 440 kts 231°
2026-05-06 03:44 45.05189 171.50706 34007 ft 441 kts 232°
2026-05-06 03:45 45.00979 171.44511 34012 ft 440 kts 232°
2026-05-06 03:45 44.96727 171.38269 34018 ft 440 kts 232°
2026-05-06 03:46 44.92471 171.32035 34018 ft 440 kts 232°
2026-05-06 03:46 44.88214 171.25815 34026 ft 441 kts 232°
2026-05-06 03:47 44.83948 171.19603 34026 ft 440 kts 232°
2026-05-06 03:47 44.79730 171.13470 34037 ft 438 kts 232°
2026-05-06 03:48 44.75496 171.07322 34037 ft 437 kts 232°
2026-05-06 03:48 44.71252 171.01174 34037 ft 437 kts 232°
2026-05-06 03:49 44.67014 170.95051 34037 ft 437 kts 232°
2026-05-06 03:49 44.62757 170.88917 34034 ft 437 kts 233°
2026-05-06 03:50 44.58534 170.82850 34042 ft 433 kts 233°
2026-05-06 03:50 44.54363 170.76863 34051 ft 432 kts 233°
2026-05-06 03:51 44.50154 170.70831 34053 ft 432 kts 233°
2026-05-06 03:51 44.45945 170.64816 34059 ft 432 kts 233°
2026-05-06 03:52 44.41733 170.58810 34023 ft 432 kts 233°
2026-05-06 03:52 44.37516 170.52813 34081 ft 431 kts 233°
2026-05-06 03:53 44.33335 170.46879 34056 ft 427 kts 233°
2026-05-06 03:53 44.29158 170.40963 34062 ft 427 kts 233°
2026-05-06 03:54 44.24991 170.35071 34068 ft 427 kts 233°
2026-05-06 03:54 44.20842 170.29218 34075 ft 427 kts 233°
2026-05-06 03:55 44.16664 170.23336 34080 ft 427 kts 233°
2026-05-06 03:55 44.12478 170.17457 34084 ft 427 kts 233°
2026-05-06 03:56 44.08313 170.11625 34091 ft 426 kts 233°
2026-05-06 03:56 44.04141 170.05791 34092 ft 425 kts 233°
2026-05-06 03:57 44.02056 170.02880 34237 ft 424 kts 233°
2026-05-06 03:57 43.99982 169.99990 34620 ft 420 kts 233°
2026-05-06 03:57 43.97944 169.97107 34929 ft 417 kts 234°
2026-05-06 03:57 43.95964 169.94175 35167 ft 416 kts 235°
2026-05-06 03:58 43.94010 169.91217 35389 ft 415 kts 235°
2026-05-06 03:58 43.92067 169.88265 35630 ft 415 kts 235°
2026-05-06 03:58 43.90109 169.85305 35864 ft 415 kts 235°
2026-05-06 03:58 43.88152 169.82364 36048 ft 416 kts 234°
2026-05-06 03:59 43.84204 169.76474 36115 ft 422 kts 234°
2026-05-06 03:59 43.80186 169.70530 36117 ft 421 kts 234°
2026-05-06 04:00 43.76180 169.64620 36119 ft 421 kts 234°
2026-05-06 04:00 43.72207 169.58763 36124 ft 421 kts 234°
2026-05-06 04:01 43.68195 169.52858 36124 ft 421 kts 234°
2026-05-06 04:01 43.64170 169.46947 36130 ft 421 kts 234°
2026-05-06 04:02 43.60150 169.41056 36123 ft 421 kts 234°
2026-05-06 04:02 43.56128 169.35174 36135 ft 421 kts 234°
2026-05-06 04:03 43.52129 169.29338 36102 ft 421 kts 234°
2026-05-06 04:03 43.48077 169.23435 36144 ft 422 kts 234°
2026-05-06 04:04 43.44065 169.17603 36142 ft 422 kts 234°
2026-05-06 04:04 43.40015 169.11729 36151 ft 422 kts 234°
2026-05-06 04:05 43.35967 169.05872 36155 ft 422 kts 234°
2026-05-06 04:05 43.31912 169.00015 36152 ft 422 kts 234°
2026-05-06 04:06 43.27857 168.94169 36153 ft 423 kts 233°
2026-05-06 04:06 43.23796 168.88326 36157 ft 423 kts 233°
2026-05-06 04:07 43.19726 168.82485 36165 ft 423 kts 233°
2026-05-06 04:07 43.15685 168.76697 36165 ft 423 kts 233°
2026-05-06 04:08 43.11610 168.70871 36165 ft 423 kts 233°
2026-05-06 04:08 43.07534 168.65057 36173 ft 423 kts 233°
2026-05-06 04:09 43.03447 168.59237 36172 ft 423 kts 233°
2026-05-06 04:09 42.99397 168.53483 36181 ft 423 kts 233°
2026-05-06 04:10 42.95278 168.47644 36183 ft 423 kts 233°
2026-05-06 04:10 42.91189 168.41857 36186 ft 423 kts 233°
2026-05-06 04:11 42.87125 168.36119 36186 ft 423 kts 233°
2026-05-06 04:11 42.83027 168.30345 36157 ft 423 kts 233°
2026-05-06 04:12 42.78923 168.24573 36208 ft 424 kts 233°
2026-05-06 04:12 42.74820 168.18814 36209 ft 424 kts 233°
2026-05-06 04:13 42.70712 168.13059 36200 ft 424 kts 233°
2026-05-06 04:13 42.66604 168.07317 36196 ft 424 kts 233°
2026-05-06 04:14 42.62491 168.01580 36202 ft 424 kts 233°
2026-05-06 04:14 42.58398 167.95881 36215 ft 424 kts 233°
2026-05-06 04:15 42.54280 167.90161 36213 ft 424 kts 233°
2026-05-06 04:15 42.50157 167.84443 36219 ft 424 kts 233°
2026-05-06 04:16 42.46033 167.78735 36218 ft 424 kts 233°
2026-05-06 04:16 42.41901 167.73028 36217 ft 424 kts 233°
2026-05-06 04:17 42.37772 167.67337 36220 ft 424 kts 233°
2026-05-06 04:17 42.33656 167.61675 36217 ft 424 kts 232°
2026-05-06 04:18 42.29515 167.55990 36226 ft 425 kts 232°
2026-05-06 04:18 42.25365 167.50305 36230 ft 425 kts 232°
2026-05-06 04:19 42.21212 167.44627 36230 ft 425 kts 232°
2026-05-06 04:19 42.17062 167.38964 36230 ft 425 kts 232°
2026-05-06 04:20 42.12905 167.33302 36241 ft 425 kts 232°
2026-05-06 04:20 42.08739 167.27638 36240 ft 425 kts 232°
2026-05-06 04:21 42.04568 167.21979 36238 ft 426 kts 232°
2026-05-06 04:21 42.00391 167.16325 36246 ft 426 kts 232°
2026-05-06 04:22 41.96207 167.10671 36251 ft 426 kts 232°
2026-05-06 04:23 41.89924 167.02203 36252 ft 426 kts 232°
2026-05-06 04:23 41.85758 166.96600 36246 ft 426 kts 232°
2026-05-06 04:24 41.81563 166.90970 36257 ft 427 kts 232°
2026-05-06 04:24 41.77359 166.85340 36264 ft 427 kts 232°
2026-05-06 04:25 41.73145 166.79708 36264 ft 428 kts 232°
2026-05-06 04:25 41.68926 166.74080 36265 ft 428 kts 232°
2026-05-06 04:26 41.64735 166.68500 36270 ft 428 kts 232°
2026-05-06 04:26 41.60510 166.62885 36261 ft 428 kts 231°
2026-05-06 04:27 41.56288 166.57285 36274 ft 428 kts 231°
2026-05-06 04:27 41.52064 166.51695 36274 ft 428 kts 231°
2026-05-06 04:28 41.47832 166.46104 36277 ft 428 kts 231°
2026-05-06 04:28 41.43589 166.40509 36277 ft 429 kts 231°
2026-05-06 04:29 41.39345 166.34925 36280 ft 429 kts 231°
2026-05-06 04:29 41.35100 166.29350 36283 ft 427 kts 231°
2026-05-06 04:30 41.30893 166.23837 36290 ft 426 kts 231°
2026-05-06 04:30 41.26669 166.18309 36286 ft 426 kts 231°
2026-05-06 04:31 41.23149 166.13712 36286 ft 426 kts 231°
2026-05-06 04:31 41.18915 166.08187 36287 ft 428 kts 231°
2026-05-06 04:32 41.14656 166.02645 36305 ft 428 kts 231°
2026-05-06 04:32 41.10404 165.97124 36290 ft 426 kts 230°
2026-05-06 04:33 41.06179 165.91652 36297 ft 423 kts 230°
2026-05-06 04:33 41.01967 165.86202 36297 ft 423 kts 230°
2026-05-06 04:34 40.97773 165.80783 36301 ft 423 kts 230°
2026-05-06 04:34 40.93557 165.75348 36304 ft 424 kts 230°
2026-05-06 04:35 40.89316 165.69890 36300 ft 425 kts 230°
2026-05-06 04:35 40.85081 165.64453 36303 ft 423 kts 230°
2026-05-06 04:36 40.80875 165.59067 36309 ft 420 kts 230°
2026-05-06 04:36 40.76673 165.53689 36311 ft 420 kts 230°
2026-05-06 04:37 40.72471 165.48321 36314 ft 420 kts 230°
2026-05-06 04:37 40.68294 165.42996 36314 ft 420 kts 230°
2026-05-06 04:38 40.64088 165.37644 36314 ft 420 kts 230°
2026-05-06 04:38 40.59870 165.32290 36313 ft 419 kts 230°
2026-05-06 04:39 40.55683 165.26985 36320 ft 417 kts 230°
2026-05-06 04:39 40.51496 165.21686 36319 ft 417 kts 230°
2026-05-06 04:40 40.47313 165.16401 36318 ft 417 kts 230°
2026-05-06 04:40 40.43156 165.11161 36325 ft 417 kts 230°
2026-05-06 04:41 40.38968 165.05890 36313 ft 418 kts 230°
2026-05-06 04:41 40.34748 165.00585 36335 ft 421 kts 230°
2026-05-06 04:42 40.30514 164.95278 36334 ft 421 kts 230°
2026-05-06 04:42 40.26280 164.89982 36322 ft 421 kts 230°
2026-05-06 04:43 40.22043 164.84689 36322 ft 421 kts 230°
2026-05-06 04:43 40.17807 164.79407 36323 ft 421 kts 230°
2026-05-06 04:44 40.13591 164.74159 36350 ft 421 kts 230°
2026-05-06 04:44 40.09346 164.68885 36336 ft 421 kts 230°
2026-05-06 04:45 40.05091 164.63608 36338 ft 421 kts 230°
2026-05-06 04:45 40.00835 164.58339 36342 ft 422 kts 230°
2026-05-06 04:46 39.96575 164.53075 36344 ft 422 kts 230°
2026-05-06 04:46 39.92315 164.47820 36338 ft 422 kts 230°
2026-05-06 04:47 39.88079 164.42604 36347 ft 422 kts 230°
2026-05-06 04:47 39.83811 164.37360 36330 ft 421 kts 230°
2026-05-06 04:48 39.79564 164.32153 36338 ft 419 kts 230°
2026-05-06 04:48 39.75324 164.26958 36346 ft 419 kts 230°
2026-05-06 04:49 39.71075 164.21761 36345 ft 419 kts 230°
2026-05-06 04:49 39.66822 164.16570 36348 ft 419 kts 230°
2026-05-06 04:50 39.62572 164.11394 36349 ft 419 kts 230°
2026-05-06 04:50 39.58314 164.06215 36311 ft 419 kts 230°
2026-05-06 04:51 39.54099 164.01103 36348 ft 416 kts 230°
2026-05-06 04:51 39.49872 163.95980 36349 ft 416 kts 230°
2026-05-06 04:52 39.45629 163.90845 36351 ft 417 kts 230°
2026-05-06 04:52 39.41388 163.85722 36353 ft 417 kts 230°
2026-05-06 04:53 39.37164 163.80630 36350 ft 417 kts 230°
2026-05-06 04:53 39.32908 163.75509 36355 ft 417 kts 230°
2026-05-06 04:54 39.28669 163.70423 36358 ft 414 kts 230°
2026-05-06 04:54 39.24455 163.65371 36357 ft 412 kts 230°
2026-05-06 04:55 39.20244 163.60326 36361 ft 414 kts 230°
2026-05-06 04:55 39.16052 163.55313 36360 ft 414 kts 230°
2026-05-06 04:56 39.11821 163.50265 36360 ft 414 kts 230°
2026-05-06 04:56 39.07588 163.45224 36360 ft 414 kts 230°
2026-05-06 04:57 39.03353 163.40191 36357 ft 412 kts 231°
2026-05-06 04:57 38.99163 163.35222 36360 ft 409 kts 231°
2026-05-06 04:58 38.94994 163.30280 36360 ft 409 kts 231°
2026-05-06 04:58 38.90808 163.25323 36360 ft 410 kts 231°
2026-05-06 04:59 38.86604 163.20357 36362 ft 410 kts 231°
2026-05-06 04:59 38.82397 163.15397 36362 ft 410 kts 231°
2026-05-06 05:00 38.78190 163.10447 36345 ft 410 kts 231°
2026-05-06 05:00 38.73992 163.05521 36368 ft 407 kts 231°
2026-05-06 05:01 38.69813 163.00619 36367 ft 407 kts 231°
2026-05-06 05:01 38.65666 162.95759 36364 ft 407 kts 231°
2026-05-06 05:02 38.61474 162.90855 36373 ft 408 kts 231°
2026-05-06 05:02 38.57279 162.85958 36369 ft 408 kts 231°
2026-05-06 05:03 38.53086 162.81071 36367 ft 408 kts 231°
2026-05-06 05:03 38.48920 162.76226 36361 ft 406 kts 230°
2026-05-06 05:04 38.44760 162.71397 36369 ft 404 kts 230°
2026-05-06 05:04 38.40597 162.66567 36369 ft 404 kts 230°
2026-05-06 05:05 38.36432 162.61743 36369 ft 404 kts 230°
2026-05-06 05:05 38.32265 162.56925 36367 ft 405 kts 230°
2026-05-06 05:06 38.28080 162.52094 36374 ft 406 kts 230°
2026-05-06 05:06 38.23891 162.47268 36345 ft 406 kts 230°
2026-05-06 05:07 38.19688 162.42431 36368 ft 408 kts 230°
2026-05-06 05:07 38.15470 162.37588 36368 ft 408 kts 230°
2026-05-06 05:08 38.11250 162.32751 36368 ft 408 kts 230°
2026-05-06 05:08 38.07029 162.27921 36368 ft 408 kts 230°
2026-05-06 05:09 38.02803 162.23090 36369 ft 410 kts 230°
2026-05-06 05:09 37.98590 162.18282 36368 ft 411 kts 230°
2026-05-06 05:10 37.94334 162.13434 36369 ft 412 kts 230°